GEFSSE_con_cape1000_030.txt.gz
Probability
0 13 100 100 100 100 100 100 100 100 100 100 100 100 100 100 100 100 100 100 100 100 100 100 97 97 100 100 94 94 94 97 97 97 94 94 94 94 87 81 71 35 77
0 52 100 100 100 100 100 100 100 100 100 100 100 100 100 100 100 100 100 100 100 100 100 100 94 97 100 94 90 77 77 81 84 100 100 100 100 100 97 84 74 81 81
6 94 100 100 100 100 100 100 100 100 100 100 100 100 100 100 100 100 97 100 100 100 100 97 90 97 94 94 84 61 48 48 45 71 84 97 87 94 100 90 90 87 71
39 100 100 100 100 100 100 100 100 100 100 100 100 100 100 100 97 94 94 97 100 100 94 90 90 94 90 84 68 58 58 55 61 65 61 55 74 84 81 94 97 94 94
77 100 100 100 100 100 100 100 100 100 100 100 100 100 100 100 100 100 100 90 87 94 94 90 94 84 81 71 68 52 42 32 45 42 45 65 81 90 77 84 90 97 100
94 100 100 100 100 100 100 100 100 100 100 100 100 100 100 100 97 97 94 94 90 90 90 94 81 74 68 71 39 26 13 16 29 6 45 61 77 87 81 84 90 97 97
87 100 100 100 100 100 100 100 100 100 100 100 100 100 100 100 100 94 97 87 87 90 84 77 77 65 52 35 6 6 3 3 6 19 32 45 48 58 58 68 84 87 97
94 97 100 100 100 100 100 100 100 100 100 100 100 100 100 100 97 90 87 87 90 84 77 77 65 39 19 6 0 0 0 0 0 3 23 29 29 39 39 42 48 48 65
90 94 100 100 100 100 100 100 100 100 100 100 100 100 94 84 77 74 84 90 68 58 45 45 29 16 6 3 0 0 0 0 3 3 6 16 10 23 32 26 23 19 23
94 81 97 97 100 100 100 100 100 100 100 100 97 87 87 71 77 68 81 58 45 39 26 19 10 10 6 3 0 0 0 0 0 0 0 10 6 10 10 13 13 10 13
94 97 97 97 97 97 94 97 100 100 97 97 87 94 81 71 65 65 55 42 23 16 13 6 10 6 3 0 0 0 0 0 0 0 0 3 6 6 6 6 6 6 3
97 97 97 97 94 90 84 100 97 84 90 81 84 74 77 97 71 10 13 42 23 16 6 6 0 0 0 0 0 0 0 0 0 0 0 0 3 6 3 6 10 6 3
97 87 81 84 84 74 84 87 87 84 90 74 74 87 87 77 52 19 16 6 13 3 0 0 0 0 0 0 0 0 0 0 0 0 0 0 0 3 6 3 3 10 19
90 84 77 77 87 81 74 81 87 87 87 71 87 87 68 65 55 26 32 26 19 10 10 0 0 0 0 0 0 0 0 0 0 0 0 0 0 3 3 6 3 6 19
87 77 77 68 94 100 97 87 77 84 77 81 84 81 84 58 48 42 52 58 45 23 19 16 3 3 3 0 0 0 0 0 0 0 0 0 0 0 0 3 3 3 3
87 74 77 74 94 100 100 100 94 87 94 74 65 65 77 58 58 65 52 58 35 32 26 26 16 10 6 3 0 0 0 0 0 0 0 0 0 0 0 0 3 3 3
90 81 84 81 94 97 97 87 87 77 77 74 68 68 65 61 61 58 39 35 26 16 26 16 16 13 16 0 0 0 0 0 0 0 0 0 0 0 0 0 0 0 0
87 87 71 58 87 90 90 84 71 71 68 52 48 45 29 26 29 39 13 13 19 13 6 10 10 10 6 3 0 0 0 3 3 3 3 3 0 0 0 0 0 0 0
81 84 71 65 71 71 71 68 55 42 39 26 19 16 16 6 6 6 3 6 6 3 3 3 0 3 0 0 0 3 0 0 3 3 3 3 3 3 3 0 0 0 0
68 71 71 65 61 61 48 32 23 16 16 13 10 6 3 0 0 0 0 0 0 0 0 0 0 0 0 0 0 0 0 0 0 0 0 0 3 3 0 0 0 0 0
65 58 65 58 48 42 42 26 13 13 0 0 0 0 0 0 0 0 0 0 0 0 0 0 0 0 0 0 0 0 0 0 0 0 0 0 0 0 0 0 0 0 0
42 29 35 32 29 19 29 13 6 0 0 0 0 0 0 0 0 0 0 0 0 0 0 0 0 0 0 0 0 0 0 0 0 0 0 0 0 0 0 0 0 0 0
26 16 13 16 10 13 3 3 0 0 0 0 0 0 0 0 0 0 0 0 0 0 0 0 0 0 0 0 0 0 0 0 0 0 0 0 0 0 0 0 0 0 0
10 10 10 6 6 3 3 0 0 0 0 0 0 0 0 0 0 0 0 0 0 0 0 0 0 0 0 0 0 0 0 0 0 0 0 0 0 0 0 0 0 0 0
0 3 3 3 0 0 0 0 0 0 0 0 0 0 0 0 0 0 0 0 0 0 0 0 0 0 0 0 0 0 0 0 0 0 0 0 0 0 0 0 0 0 0
0 0 0 0 0 0 0 0 0 0 0 0 0 0 0 0 0 0 0 0 0 0 0 0 0 0 0 0 0 0 0 0 0 0 0 0 0 0 0 0 0 0 0

GEFSSE_con_cape1000_036.txt.gz
Probability
65 81 100 100 100 100 100 100 100 100 100 100 100 100 100 100 100 100 100 100 100 100 100 100 100 100 100 100 97 94 94 90 97 87 77 77 84 84 77 81 94 81 97
77 84 100 100 100 100 100 100 100 100 100 100 100 100 100 100 100 100 100 100 100 100 100 100 100 100 97 87 81 68 61 71 71 68 84 81 84 81 81 84 100 84 81
94 94 100 100 100 100 100 100 100 100 100 100 100 100 100 100 100 100 100 100 100 100 100 100 97 97 84 68 48 35 23 19 32 58 84 100 84 87 81 71 90 81 61
97 97 100 100 100 100 100 100 100 100 100 100 100 100 100 100 100 100 100 100 100 100 100 97 90 74 71 55 29 10 6 13 23 42 58 100 81 94 87 74 77 77 77
100 100 100 100 100 100 100 100 100 100 100 100 100 100 100 100 100 100 94 90 94 97 90 97 87 74 55 39 26 13 3 16 42 45 39 77 87 100 100 77 77 77 94
100 100 100 100 100 100 100 100 100 100 100 100 100 100 100 100 97 97 94 87 90 87 84 74 58 58 42 23 16 10 10 26 29 10 26 58 84 94 94 87 84 94 100
100 100 100 100 100 100 100 100 100 100 100 100 100 100 100 100 94 90 97 94 77 74 68 65 55 48 29 19 10 3 0 13 10 3 26 58 58 74 74 81 87 84 97
100 100 100 100 100 100 100 100 100 100 100 100 100 100 100 97 94 87 90 87 77 65 58 65 58 32 23 10 0 0 0 3 3 3 13 32 39 58 55 52 55 48 58
100 100 100 100 100 100 100 100 100 100 100 100 100 100 100 100 94 94 87 81 65 61 45 35 29 16 10 3 0 3 3 0 3 3 6 23 35 45 35 35 32 29 26
100 100 100 100 100 100 100 100 100 100 100 100 100 100 100 100 97 90 90 87 55 42 32 23 19 13 13 6 3 3 6 3 0 0 6 13 29 29 26 19 19 19 16
100 100 100 100 100 100 100 100 100 100 100 100 97 100 100 90 94 97 74 77 48 35 29 26 16 16 13 13 10 6 6 0 0 0 3 13 23 16 10 10 10 6 3
94 94 100 100 100 100 100 100 100 100 100 94 97 94 97 100 100 84 74 74 45 39 26 26 23 16 10 3 3 3 3 0 0 0 6 16 16 13 10 10 6 6 3
90 97 97 97 100 97 100 97 100 100 100 100 100 100 100 97 94 77 55 52 42 39 23 19 23 3 3 0 3 3 0 0 0 0 3 19 16 13 10 13 13 16 6
90 94 97 97 100 100 100 100 100 100 100 100 100 100 100 100 94 87 77 71 65 39 39 29 26 0 0 0 0 0 0 0 0 0 3 16 16 13 10 19 19 13 19
90 94 94 100 100 100 100 100 100 100 100 100 100 100 100 97 94 81 77 81 71 55 55 48 39 29 13 6 3 0 0 0 0 0 0 10 13 10 16 6 13 13 13
97 100 100 97 100 100 100 100 100 100 100 100 97 100 94 100 90 87 84 81 65 55 55 55 42 35 26 32 19 6 6 0 3 10 0 0 3 3 10 10 6 6 10
100 100 100 100 100 100 100 100 100 100 100 97 100 94 81 84 84 77 81 68 65 61 48 52 39 35 39 19 19 10 6 6 10 10 3 3 0 3 3 3 3 3 6
97 100 100 100 100 100 100 100 100 97 97 97 94 90 77 77 71 74 77 55 52 45 39 39 39 29 23 19 16 16 10 10 6 10 3 3 3 3 3 3 3 3 3
100 100 100 100 100 100 100 100 100 97 97 90 87 74 65 52 45 55 52 42 29 26 26 19 13 19 6 6 3 6 6 3 3 3 3 3 3 3 0 0 3 0 0
100 100 100 100 100 100 100 100 87 84 77 68 55 58 35 29 16 26 29 29 16 16 19 6 3 10 6 3 0 0 0 0 0 0 3 3 3 3 0 0 0 0 0
100 100 100 100 100 100 94 87 84 68 61 45 29 16 10 10 6 6 3 3 0 0 0 0 0 0 0 0 0 0 0 0 0 0 0 0 0 0 0 0 0 0 0
100 100 100 100 100 94 94 87 84 58 35 13 10 6 6 0 0 0 0 0 0 0 0 0 0 0 0 0 0 0 0 0 0 0 0 0 0 0 0 0 0 0 0
100 100 94 97 94 90 84 65 42 29 10 0 0 0 0 0 0 0 0 0 0 0 0 0 0 0 0 0 0 0 0 0 0 0 0 0 0 0 0 0 0 0 0
97 97 87 84 81 74 61 45 19 6 0 0 0 0 0 0 0 0 0 0 0 0 0 0 0 0 0 0 0 0 0 0 0 0 0 0 0 0 0 0 0 0 0
74 58 55 52 55 35 35 39 32 6 3 0 0 0 0 0 0 0 0 0 0 0 0 0 0 0 0 0 0 0 0 0 0 0 0 0 0 0 0 0 0 0 0
45 32 26 23 19 16 13 13 13 3 3 0 0 0 0 0 0 0 0 0 0 0 0 0 0 0 0 0 0 0 0 0 0 0 0 0 0 0 0 0 0 0 0

GEFSSE_con_cape1000_042.txt.gz
Probability
65 100 100 100 100 100 100 100 100 100 100 100 100 100 100 100 100 100 100 100 100 100 100 100 100 100 100 100 100 97 97 100 100 100 100 97 97 100 100 100 97 97 100
71 100 100 100 100 100 100 100 100 100 100 100 100 100 100 100 100 100 100 100 100 100 100 100 100 100 94 87 77 74 71 81 84 94 100 90 97 100 100 94 90 90 100
94 100 100 100 100 100 100 100 100 100 100 100 100 100 100 100 100 100 100 100 100 100 100 100 94 81 74 65 48 52 48 45 55 68 94 74 97 100 100 100 94 90 94
97 100 100 100 100 100 100 100 100 100 100 100 100 100 100 100 100 100 100 100 100 100 100 90 74 65 52 39 35 32 19 35 42 52 26 39 90 100 100 100 100 97 87
81 97 100 100 100 100 100 100 100 100 100 100 100 100 100 100 100 100 100 100 100 100 100 84 71 61 48 35 19 19 26 35 45 16 0 13 48 100 97 100 100 100 100
77 97 100 100 100 100 100 100 100 100 100 100 100 100 100 100 100 100 100 100 100 100 90 74 71 68 48 29 32 32 45 48 19 10 10 26 55 94 100 100 100 100 100
65 100 100 100 100 100 100 100 100 100 100 100 100 100 100 100 100 100 100 100 100 94 84 81 77 61 45 35 35 29 32 23 6 6 19 26 61 94 97 100 100 100 100
71 100 100 100 100 100 100 100 100 100 100 100 100 100 100 100 100 100 100 100 94 87 81 74 71 61 48 35 23 13 13 10 13 6 16 35 74 90 94 90 94 90 87
74 100 100 100 100 100 100 100 100 100 100 100 100 100 100 100 100 100 100 97 90 81 71 68 61 45 32 26 23 16 16 10 0 3 10 23 74 87 74 71 68 71 68
81 94 97 97 100 100 100 100 100 100 100 100 100 100 100 100 100 100 100 94 90 77 71 68 48 35 29 23 19 16 16 10 3 0 13 23 71 65 58 55 55 52 45
81 87 97 97 100 97 100 100 100 100 100 100 100 100 100 87 87 100 90 90 84 74 74 52 39 35 26 23 23 19 10 3 0 0 0 32 65 61 55 52 52 29 29
81 87 94 94 94 87 90 100 100 97 97 97 94 100 71 23 13 65 84 94 77 71 55 48 39 32 19 10 3 6 3 3 0 0 3 52 68 52 42 39 39 35 29
94 84 90 90 87 84 81 87 84 74 84 74 55 61 26 16 3 32 26 71 65 48 35 23 19 23 13 3 0 0 0 3 0 0 3 52 55 52 42 39 39 32 35
90 90 94 90 90 84 81 81 71 65 55 42 35 29 16 10 6 0 0 13 6 3 3 0 0 3 0 0 0 0 0 0 0 0 3 39 42 52 39 39 42 42 35
94 90 97 94 94 84 68 55 68 61 45 26 32 35 26 10 6 0 0 0 0 0 0 0 0 0 0 0 0 0 0 0 0 3 3 29 52 52 42 29 35 39 39
94 94 94 100 100 87 68 61 74 68 52 35 32 35 29 13 6 3 3 0 0 0 0 0 0 0 0 0 0 0 0 0 0 0 0 6 26 32 52 55 39 39 29
84 90 87 97 94 90 71 65 77 65 52 42 42 32 23 13 6 0 0 0 0 0 0 0 0 0 0 0 0 0 0 0 0 0 0 0 3 10 23 39 42 35 26
81 81 84 90 87 77 68 45 65 58 39 35 26 13 10 3 0 0 0 0 0 0 0 0 0 0 0 0 0 0 0 0 0 0 0 0 0 0 0 19 32 26 19
68 84 81 74 71 68 35 39 39 26 23 16 13 10 6 0 0 0 0 0 0 0 0 0 0 0 0 0 0 0 0 0 0 0 0 0 0 0 0 0 6 13 10
71 74 74 81 68 55 35 29 19 10 10 10 10 6 0 0 0 0 0 0 0 0 0 0 0 0 0 0 0 0 0 0 0 0 0 0 0 0 0 0 0 0 3
68 68 71 81 65 58 35 26 23 13 6 0 0 0 0 0 0 0 0 0 0 0 0 0 0 0 0 0 0 0 0 0 0 0 0 0 0 0 0 0 0 0 0
71 71 71 71 65 55 35 23 10 0 0 0 0 0 0 0 0 0 0 0 0 0 0 0 0 0 0 0 0 0 0 0 0 0 0 0 0 0 0 0 0 0 0
74 81 74 71 55 42 39 13 3 0 0 0 0 0 0 0 0 0 0 0 0 0 0 0 0 0 0 0 0 0 0 0 0 0 0 0 0 0 0 0 0 0 0
65 68 77 45 45 29 19 10 0 0 0 0 0 0 0 0 0 0 0 0 0 0 0 0 0 0 0 0 0 0 0 0 0 0 0 0 0 0 0 0 0 0 0
65 48 29 32 16 6 10 3 0 0 0 0 0 0 0 0 0 0 0 0 0 0 0 0 0 0 0 0 0 0 0 0 0 0 0 0 0 0 0 0 0 0 0
35 16 16 10 6 3 3 0 0 0 0 0 0 0 0 0 0 0 0 0 0 0 0 0 0 0 0 0 0 0 0 0 0 0 0 0 0 0 0 0 0 0 0

GEFSSE_con_cape1000_048.txt.gz
Probability
0 87 100 100 100 100 100 100 100 100 100 100 100 100 100 100 100 100 100 100 100 100 100 100 100 100 100 100 100 100 100 100 100 100 100 100 100 100 100 100 100 100 100
10 100 100 100 100 100 100 100 100 100 100 100 100 100 100 100 100 100 100 100 100 100 100 100 100 100 100 100 94 94 97 100 100 100 100 100 100 100 97 97 100 100 100
84 100 100 100 100 100 100 100 100 100 100 100 100 100 100 100 100 100 100 100 100 100 100 100 100 100 87 90 90 84 81 87 94 100 100 100 100 100 94 94 100 100 100
94 100 100 100 100 100 100 100 100 100 100 100 100 100 100 100 100 100 100 100 100 100 100 97 94 81 77 71 68 58 48 52 65 81 52 84 97 100 97 94 100 97 100
97 100 100 100 100 100 100 100 100 100 100 100 100 100 100 100 100 100 100 100 100 100 100 90 74 68 61 58 45 39 35 45 45 29 16 35 65 100 100 100 100 100 100
100 100 100 100 100 100 100 100 100 100 100 100 100 100 100 100 100 100 100 100 100 100 90 81 68 68 58 42 45 39 32 42 23 3 19 29 48 94 100 100 100 100 100
97 100 100 100 100 100 100 100 100 100 100 100 100 100 100 100 100 100 100 100 100 94 84 77 81 77 55 42 35 29 32 32 6 13 29 39 65 90 100 100 100 100 100
97 100 100 100 100 100 100 100 100 100 100 100 100 100 100 100 100 100 100 100 97 94 81 77 81 71 48 32 29 19 29 32 23 26 48 58 84 87 100 100 100 100 100
97 100 100 100 100 100 100 100 100 100 100 100 100 100 100 100 100 100 100 100 94 90 81 77 71 55 35 29 26 23 32 35 6 16 35 58 90 97 100 100 100 97 100
97 100 100 100 100 100 100 100 100 100 100 100 100 100 100 100 100 100 100 94 90 90 77 71 61 45 32 29 26 26 23 23 3 10 13 39 90 97 97 97 87 77 71
94 97 94 97 100 100 100 100 100 100 100 100 100 100 100 100 97 100 100 94 90 84 71 61 58 45 39 35 23 19 13 3 3 3 6 35 84 81 74 71 65 68 65
52 81 84 90 94 97 100 100 100 100 100 100 97 100 97 48 32 90 84 90 87 77 65 58 52 45 29 10 6 10 3 3 3 3 6 35 68 74 68 65 61 58 55
10 48 71 77 87 84 81 81 77 71 74 77 74 87 42 10 3 29 10 42 71 71 48 29 26 16 13 3 6 3 0 0 0 3 10 45 61 65 68 61 55 55 52
6 23 42 71 77 77 58 71 71 61 68 61 39 23 19 3 0 0 0 0 6 13 6 3 3 0 0 3 0 0 0 0 0 0 0 32 55 55 48 55 52 52 52
16 19 29 65 61 71 55 58 58 45 42 35 13 16 13 0 0 0 0 0 0 0 0 3 0 0 0 0 0 0 0 0 0 0 0 13 39 52 45 45 42 52 48
39 13 19 52 48 55 52 48 52 35 29 16 10 6 10 0 0 0 0 0 0 0 0 0 0 0 0 0 0 0 0 0 0 0 0 0 6 16 35 35 26 35 29
58 29 19 32 35 29 26 26 19 23 6 6 3 3 10 6 0 0 0 0 0 0 0 0 0 0 0 0 0 0 0 0 0 0 0 0 0 0 3 16 16 26 26
87 48 26 29 26 19 16 10 16 6 3 0 3 3 3 6 0 0 0 0 0 0 0 0 0 0 0 0 0 0 0 0 0 0 0 0 0 0 0 3 6 6 10
94 71 52 48 26 23 13 3 3 3 3 3 3 0 3 10 6 0 0 0 0 0 0 0 0 0 0 0 0 0 0 0 0 0 0 0 0 0 0 0 0 0 0
81 84 71 61 35 23 13 10 10 6 0 0 3 0 0 6 3 0 0 0 0 0 0 0 0 0 0 0 0 0 0 0 0 0 0 0 0 0 0 0 0 0 0
71 87 87 77 61 32 16 13 13 10 6 3 3 3 0 0 3 3 0 0 0 0 0 0 0 0 0 0 0 0 0 0 0 0 0 0 0 0 0 0 0 0 0
42 68 74 65 48 39 19 16 6 6 0 0 0 0 0 0 0 0 0 0 0 0 0 0 0 0 0 0 0 0 0 0 0 0 0 0 0 0 0 0 0 0 0
16 32 45 45 39 26 13 3 0 0 0 0 0 0 0 0 0 0 0 0 0 0 0 0 0 0 0 0 0 0 0 0 0 0 0 0 0 0 0 0 0 0 0
10 13 16 23 19 16 6 3 3 0 0 0 0 0 0 0 0 0 0 0 0 0 0 0 0 0 0 0 0 0 0 0 0 0 0 0 0 0 0 0 0 0 0
6 6 13 13 10 0 3 0 0 0 0 0 0 0 0 0 0 0 0 0 0 0 0 0 0 0 0 0 0 0 0 0 0 0 0 0 0 0 0 0 0 0 0
13 10 10 6 0 0 0 0 0 0 0 0 0 0 0 0 0 0 0 0 0 0 0 0 0 0 0 0 0 0 0 0 0 0 0 0 0 0 0 0 0 0 0

GEFSSE_con_cape1000_054.txt.gz
Probability
19 81 100 100 100 100 100 100 100 100 100 100 100 100 100 100 100 100 100 100 100 100 100 100 100 100 100 100 100 97 97 100 100 100 97 97 100 100 97 97 97 84 97
35 87 100 100 100 100 100 100 100 100 100 100 100 100 100 100 100 100 100 100 100 100 100 100 100 100 100 100 100 100 100 100 100 100 100 100 94 100 100 87 97 97 100
68 100 97 100 100 100 100 100 100 100 100 100 100 100 100 100 100 100 100 100 100 100 100 100 100 97 97 97 97 97 100 100 100 100 100 94 90 97 97 94 97 97 100
87 100 97 100 100 100 100 100 100 100 100 100 100 100 100 100 100 100 100 100 100 100 100 100 100 97 97 94 94 94 94 97 97 100 94 77 84 90 97 97 100 100 100
90 100 100 100 100 100 100 100 100 100 100 100 100 100 100 100 100 100 100 100 100 100 100 100 94 81 74 71 74 77 77 84 87 97 84 84 87 100 97 100 100 100 100
90 100 100 100 100 100 100 100 100 100 100 100 100 100 100 100 100 100 100 100 100 100 100 87 81 74 65 58 45 48 45 58 68 68 81 71 84 97 97 97 100 100 100
74 100 100 100 100 100 100 100 100 100 100 100 100 100 100 100 100 100 100 100 100 97 84 81 74 71 48 45 42 42 45 39 48 48 61 71 74 94 94 100 100 100 100
68 90 100 100 100 100 100 100 100 100 100 100 100 100 100 100 100 100 100 100 94 90 84 81 77 52 42 32 35 32 42 39 26 29 48 58 87 94 94 100 97 100 100
58 77 100 100 100 100 100 100 100 100 100 100 100 100 100 100 100 100 100 94 94 84 84 71 65 48 35 26 29 29 35 26 26 29 32 55 87 94 100 100 97 97 100
58 71 97 100 100 100 100 100 100 100 100 100 100 100 100 100 100 100 97 94 94 74 68 65 55 45 32 32 23 26 32 26 23 16 23 61 87 90 94 97 97 97 94
71 84 90 100 100 100 100 100 100 100 100 100 100 100 100 100 84 97 94 90 87 74 65 55 55 39 32 29 19 26 23 19 16 13 23 71 81 94 90 90 81 77 77
84 84 87 100 100 100 100 100 100 97 100 97 100 100 100 97 94 71 87 87 84 81 61 52 48 39 19 16 13 13 10 10 6 10 26 65 65 65 74 74 68 61 52
94 90 87 100 100 100 100 100 100 97 100 97 100 100 100 100 94 77 90 84 87 71 48 58 35 16 6 6 6 6 6 6 0 6 19 45 45 52 42 58 58 42 35
84 94 87 100 100 100 100 100 97 94 97 90 100 100 100 100 94 81 84 58 61 58 52 39 19 10 6 6 3 3 0 0 0 0 26 19 23 26 23 32 35 32 26
87 97 100 100 100 100 100 100 94 94 84 84 97 100 100 90 81 58 71 74 55 52 45 35 23 16 13 10 6 0 0 3 0 0 13 23 23 19 16 26 26 26 19
90 97 100 100 100 100 100 100 97 94 97 81 94 100 100 94 94 81 84 81 65 58 48 39 29 16 13 13 10 10 6 3 3 10 3 10 3 6 6 13 19 23 19
94 100 100 100 100 100 100 100 100 97 94 94 97 97 97 94 94 90 84 84 74 68 61 42 32 19 16 10 10 3 0 0 0 0 0 0 3 3 6 3 10 10 16
100 100 100 94 100 100 100 100 97 87 87 87 90 90 84 90 90 94 87 81 71 58 48 42 35 23 13 16 10 6 0 0 0 0 0 0 0 0 0 0 0 0 3
100 100 100 100 100 100 100 97 90 84 87 84 81 74 77 77 81 90 87 74 55 55 39 13 10 16 16 13 6 6 0 0 0 0 0 0 0 0 0 0 0 0 0
100 100 100 100 100 100 94 90 81 77 68 65 65 52 48 48 48 55 48 42 39 32 16 10 3 3 6 10 0 0 0 0 0 0 0 0 0 0 0 0 0 0 0
100 100 100 100 100 100 90 81 77 61 52 52 35 35 35 35 29 26 16 19 16 10 13 3 0 0 0 0 0 0 0 0 0 0 0 0 0 0 0 0 0 0 0
97 100 100 100 100 97 87 71 58 55 39 29 26 19 19 19 16 13 13 16 13 10 3 3 0 0 0 0 0 0 0 0 0 0 0 0 0 0 0 0 0 0 0
97 100 100 100 97 94 77 58 39 32 19 16 10 6 6 3 3 3 3 3 6 3 0 0 0 0 0 0 0 0 0 0 0 0 0 0 0 0 0 0 0 0 0
94 94 94 94 94 77 58 45 42 32 29 19 6 3 3 3 3 3 3 3 3 3 0 0 0 0 0 0 0 0 0 0 0 0 0 0 0 0 0 0 0 0 0
81 90 87 90 77 55 48 52 48 35 23 6 6 6 6 3 3 3 3 3 3 0 0 0 0 0 0 0 0 0 0 0 0 0 0 0 0 0 0 0 0 0 0
68 71 71 58 42 32 35 32 29 23 3 3 3 3 3 3 3 0 0 0 0 0 0 0 0 0 0 0 0 0 0 0 0 0 0 0 0 0 0 0 0 0 0

GEFSSE_con_cape1000_060.txt.gz
Probability
48 48 100 100 100 100 100 100 100 100 100 100 100 100 100 100 100 100 100 100 100 100 100 100 100 100 97 94 97 100 100 100 97 97 94 97 97 97 97 94 97 94 97
74 61 100 100 100 100 100 100 100 100 100 100 100 100 100 100 100 100 100 100 100 100 100 100 100 100 100 100 97 97 97 100 97 97 97 94 94 94 94 100 100 97 100
87 81 100 100 100 100 100 100 100 100 100 100 100 100 100 100 100 100 100 100 100 100 100 100 97 97 94 94 97 100 97 100 100 100 97 84 90 87 90 97 100 100 100
90 74 97 100 100 100 100 100 100 100 100 100 100 100 100 100 100 100 100 100 100 100 100 97 94 94 94 90 87 90 94 94 94 100 100 81 74 90 90 94 94 100 100
94 87 100 100 100 100 100 100 100 100 100 100 100 100 100 100 100 100 100 100 100 100 100 94 84 77 74 74 74 77 81 90 97 97 90 81 81 97 94 94 94 94 97
94 97 100 100 100 100 100 100 100 100 100 100 100 100 100 100 100 100 100 100 100 100 90 84 74 71 58 52 48 55 65 74 81 81 87 77 87 100 97 97 97 97 97
94 100 100 100 100 100 100 100 100 100 100 100 100 100 100 100 100 100 100 100 97 97 77 74 68 52 48 45 32 39 48 61 61 61 61 81 94 100 100 100 100 97 94
97 97 100 100 100 100 100 100 100 100 100 100 100 100 100 100 100 100 100 100 90 81 74 68 48 39 26 29 29 39 45 58 39 35 52 81 100 100 97 97 97 97 94
97 97 100 97 100 100 100 100 100 100 100 100 100 100 100 100 100 100 100 94 94 81 74 58 29 19 23 19 23 39 45 58 39 19 42 87 97 100 97 97 97 94 94
97 97 97 100 100 100 100 100 100 100 100 100 100 100 100 100 100 100 97 94 87 81 68 61 48 32 32 35 39 42 42 42 23 16 32 87 97 97 97 94 90 87 90
87 97 94 100 100 97 94 100 100 100 100 100 100 100 100 100 97 100 94 94 84 74 71 58 55 48 48 42 39 48 35 16 6 10 48 87 90 84 87 84 84 77 77
77 94 90 100 100 100 90 97 100 97 100 97 100 100 100 100 100 94 97 90 87 81 81 68 58 55 52 32 29 39 23 10 3 13 55 94 87 81 81 81 71 68 61
74 90 97 100 100 100 100 100 100 100 100 100 100 100 100 100 100 97 90 90 87 84 74 68 61 35 26 16 23 16 13 13 10 19 52 84 71 58 58 58 65 61 48
74 84 97 100 100 100 100 100 100 100 100 97 100 100 100 100 100 100 100 90 90 77 81 65 48 29 23 13 13 10 13 6 26 26 45 71 71 55 52 52 52 39 39
90 90 97 100 100 100 100 100 100 100 100 100 100 100 100 100 100 100 100 97 94 90 81 71 65 39 19 13 6 10 6 16 23 29 35 58 61 45 42 42 29 29 32
90 90 100 100 100 100 100 100 100 100 100 100 100 100 100 100 100 100 100 100 90 84 74 68 52 45 26 23 16 13 10 6 32 32 29 32 32 32 32 26 23 26 26
100 100 100 100 100 100 100 100 100 100 100 100 100 100 100 97 100 100 94 90 90 81 77 48 42 29 23 16 16 13 13 13 13 26 13 13 3 10 19 13 16 16 16
100 100 100 100 100 100 100 100 100 100 100 94 94 84 87 90 94 90 90 84 77 84 71 61 45 26 26 19 19 19 6 10 6 6 0 0 3 3 3 6 10 10 13
100 100 100 100 100 100 100 100 100 97 97 90 84 87 81 81 84 77 77 74 77 61 55 35 32 39 29 16 6 6 3 3 3 3 0 0 0 0 0 3 3 3 0
100 100 100 100 100 100 100 100 94 94 94 84 81 81 81 77 74 71 71 61 52 45 42 35 23 19 10 13 0 0 3 3 0 0 0 0 0 0 0 0 0 0 0
100 100 100 100 100 100 97 97 94 84 81 77 65 71 58 48 55 55 42 48 32 29 26 16 16 13 10 10 0 0 3 0 0 0 0 0 0 0 0 0 0 0 0
94 100 100 100 100 97 94 94 87 77 58 55 45 26 32 32 29 23 32 23 16 19 10 3 6 6 6 3 0 0 0 0 0 0 0 0 0 0 0 0 0 0 0
90 94 97 97 94 90 87 77 74 61 45 35 29 23 13 13 10 16 13 10 10 3 3 3 3 3 6 0 0 0 0 0 0 0 0 0 0 0 0 0 0 0 0
81 90 94 97 90 84 74 74 61 58 32 32 19 10 6 3 3 6 6 6 3 3 6 6 6 3 0 0 0 0 0 0 0 0 0 0 0 0 0 0 0 0 0
74 77 81 68 65 74 71 68 58 48 29 13 6 6 3 0 0 3 3 3 3 3 3 0 0 0 0 0 0 0 0 0 0 0 0 0 0 0 0 0 0 0 0
58 45 42 42 45 42 42 35 26 26 13 6 6 6 3 3 3 0 0 0 0 0 0 0 0 0 0 0 0 0 0 0 0 0 0 0 0 0 0 0 0 0 0

GEFSSE_con_cape1000_066.txt.gz
Probability
77 100 100 100 100 100 100 100 100 100 100 100 100 100 100 100 100 100 100 100 100 100 100 100 97 97 100 100 100 100 100 100 100 100 100 100 100 100 100 100 100 100 100
81 100 100 100 100 100 100 100 100 100 100 100 100 100 100 100 100 100 100 100 100 100 100 100 100 100 100 100 100 100 100 97 97 94 97 97 100 100 100 100 100 100 100
84 100 100 100 100 100 100 100 100 100 100 100 100 100 100 100 100 100 100 100 100 100 100 100 97 97 97 97 100 100 100 100 97 94 94 84 97 100 100 100 100 100 100
94 100 100 100 100 100 100 100 100 100 100 100 100 100 100 100 100 100 100 100 100 100 97 97 94 87 87 94 94 90 90 90 90 87 71 77 90 97 100 100 100 100 100
90 100 100 100 100 100 100 100 100 100 100 100 100 100 100 100 100 100 100 100 100 100 97 90 81 74 71 74 77 77 84 87 90 68 58 71 87 97 100 100 100 100 100
87 100 100 100 100 100 100 100 100 100 100 100 100 100 100 100 100 100 100 100 100 97 94 81 74 68 58 52 55 65 65 71 55 39 39 65 87 97 94 100 100 97 100
87 100 100 100 100 100 100 100 100 100 100 100 100 100 100 100 100 100 100 100 100 97 87 71 61 52 42 39 45 52 58 55 23 13 29 52 90 97 94 94 100 100 97
84 100 100 100 100 100 100 100 100 100 100 100 100 100 100 100 100 100 100 100 97 90 81 71 65 48 39 35 39 52 58 52 32 13 23 39 90 97 90 94 97 97 100
87 100 100 100 100 100 100 100 100 100 100 100 100 100 100 100 100 100 100 100 90 87 77 58 52 42 35 32 39 48 52 48 10 6 19 23 84 94 94 97 97 97 97
77 100 100 100 100 100 100 100 100 100 100 100 100 100 100 100 100 100 100 100 90 87 74 71 65 61 48 48 48 58 55 42 10 3 3 35 84 94 97 97 97 97 97
74 87 94 97 100 100 100 100 100 100 100 100 100 100 100 100 100 100 97 90 90 87 81 77 71 65 55 52 55 65 48 10 0 0 3 58 90 97 97 97 97 97 94
61 58 87 90 94 94 94 100 100 100 100 100 100 100 84 58 61 90 97 97 90 87 81 81 74 68 48 23 13 32 13 3 0 3 23 77 94 94 90 90 90 87 84
45 35 58 65 71 68 71 84 74 74 74 68 77 74 39 16 23 48 58 94 84 77 58 52 58 42 26 10 6 3 3 3 3 3 29 87 94 87 90 84 77 77 74
52 39 39 35 35 32 55 65 58 52 48 42 35 45 13 10 10 13 16 42 52 35 13 13 10 16 6 6 6 3 0 0 0 6 26 77 81 81 74 71 65 61 58
58 52 45 39 35 32 42 39 42 26 29 13 19 29 10 6 6 10 16 23 19 10 6 6 6 6 6 6 3 3 0 0 6 6 19 61 68 65 71 58 48 48 52
65 61 68 55 45 48 48 39 39 32 26 10 16 39 19 13 10 13 10 10 6 6 6 6 6 6 6 3 3 3 0 0 3 3 6 23 42 52 52 45 42 39 32
68 68 71 74 68 71 61 58 58 58 52 32 23 32 29 13 13 13 10 10 6 3 6 6 6 6 0 0 0 0 0 0 0 0 0 0 6 35 35 29 26 26 23
65 74 77 87 90 87 74 68 71 71 55 45 42 29 32 26 13 13 10 3 3 3 6 0 3 0 0 0 0 0 0 0 0 0 0 0 0 0 3 19 23 19 16
65 68 84 84 90 90 84 65 65 65 58 55 45 39 42 32 23 13 6 6 6 6 3 3 0 0 0 0 0 0 0 0 0 0 0 0 0 0 0 0 3 3 3
61 74 81 84 94 84 77 68 58 55 39 29 29 26 29 26 23 10 6 3 3 3 0 0 0 0 0 0 0 0 0 0 0 0 0 0 0 0 0 0 0 0 0
45 55 84 87 87 87 81 77 65 42 29 23 16 16 19 16 13 6 6 3 3 3 0 0 0 0 0 0 0 0 0 0 0 0 0 0 0 0 0 0 0 0 0
42 58 71 81 87 87 81 58 45 32 19 19 19 13 3 3 6 3 0 0 0 0 0 0 0 0 0 0 0 0 0 0 0 0 0 0 0 0 0 0 0 0 0
65 61 71 77 74 74 58 39 29 23 13 10 10 3 3 6 6 3 0 0 0 0 0 0 0 0 0 0 0 0 0 0 0 0 0 0 0 0 0 0 0 0 0
48 48 48 52 48 52 42 35 35 29 13 10 3 0 0 0 0 0 0 0 0 0 0 0 0 0 0 0 0 0 0 0 0 0 0 0 0 0 0 0 0 0 0
29 35 32 39 32 32 26 26 26 13 10 3 0 0 0 0 0 0 0 0 0 0 0 0 0 0 0 0 0 0 0 0 0 0 0 0 0 0 0 0 0 0 0
23 26 32 29 23 19 19 19 13 10 3 0 0 0 0 0 0 0 0 0 0 0 0 0 0 0 0 0 0 0 0 0 0 0 0 0 0 0 0 0 0 0 0

GEFSSE_con_cape1000_072.txt.gz
Probability
32 100 100 100 100 100 100 100 100 100 100 100 100 100 100 100 100 100 100 100 100 100 100 100 100 100 100 100 100 100 97 100 100 100 97 97 97 100 100 100 100 97 100
45 100 100 100 100 100 100 100 100 100 100 100 100 100 100 100 100 100 100 100 100 100 100 100 100 100 100 100 97 97 97 100 100 100 100 100 100 100 100 97 97 97 100
94 100 100 100 100 100 100 100 100 100 100 100 100 100 100 100 100 100 100 100 100 100 100 100 100 100 100 100 100 97 97 100 100 100 97 97 97 100 100 100 100 100 100
97 100 100 100 100 100 100 100 100 100 100 100 100 100 100 100 100 100 100 100 100 100 100 100 100 100 100 100 100 100 100 100 94 94 90 97 97 100 100 100 100 100 100
97 100 100 100 100 100 100 100 100 100 100 100 100 100 100 100 100 100 100 100 100 100 100 97 94 94 94 94 90 87 87 90 90 77 74 94 97 100 100 100 100 100 100
100 100 100 100 100 100 100 100 100 100 100 100 100 100 100 100 100 100 100 100 100 100 94 94 87 87 81 81 77 81 81 84 65 52 71 81 87 100 100 100 100 100 100
100 100 100 100 100 100 100 100 100 100 100 100 100 100 100 100 100 100 100 100 100 97 90 84 77 65 65 55 52 55 55 58 26 35 55 74 84 97 100 100 97 97 97
100 100 100 100 100 100 100 100 100 100 100 100 100 100 100 100 100 100 100 100 100 97 84 74 65 55 45 55 52 55 55 48 42 32 55 68 84 97 94 100 100 97 97
100 100 100 100 100 100 100 100 100 100 100 100 100 100 100 100 100 100 100 100 100 90 77 68 55 42 35 42 42 55 65 45 16 29 42 65 81 90 94 97 97 97 97
100 100 100 100 100 100 100 100 100 100 100 100 100 100 100 100 100 100 100 100 100 87 71 55 52 48 48 42 52 55 65 39 10 13 26 52 81 94 94 97 97 97 97
97 100 100 100 100 100 100 100 100 100 100 100 100 100 100 100 100 100 100 100 90 77 68 65 65 61 58 42 48 48 42 10 6 3 10 45 87 87 97 97 97 97 97
87 97 97 97 97 100 100 100 100 100 100 100 97 100 90 58 77 100 97 97 87 84 74 71 65 55 42 23 19 26 13 6 0 0 13 55 87 90 94 94 94 94 90
45 87 90 94 94 97 90 100 87 87 87 81 81 81 45 29 39 61 52 87 77 74 52 42 42 39 32 13 10 6 6 3 0 0 13 58 90 94 90 87 84 84 71
19 58 84 90 81 71 71 87 61 68 74 68 65 39 29 19 19 19 13 13 45 35 29 13 6 6 6 6 6 6 6 3 3 3 29 71 87 94 81 81 77 71 65
23 32 65 77 68 58 45 61 52 52 55 48 39 32 19 19 13 10 3 3 6 13 13 6 6 6 6 6 6 6 3 3 3 10 19 68 71 65 71 61 65 48 52
16 23 42 68 55 45 39 42 39 35 29 19 19 29 16 13 6 6 3 3 3 6 3 6 6 6 6 6 6 3 3 3 3 0 10 32 45 39 42 52 52 45 42
23 19 23 32 39 29 29 23 16 19 13 16 13 16 13 10 0 0 0 0 0 6 3 3 6 3 0 0 0 0 0 0 0 3 3 6 19 29 39 39 42 39 29
35 16 19 35 26 19 13 13 10 13 10 10 6 6 10 6 0 0 0 0 3 3 3 3 6 0 0 0 0 0 0 0 0 0 0 0 6 13 19 23 29 29 29
42 23 13 19 23 16 13 10 6 6 6 6 3 6 6 13 6 3 3 6 3 3 0 3 0 0 0 0 0 0 0 0 0 0 0 0 0 3 3 6 13 10 13
52 29 16 26 19 23 10 16 6 3 3 6 3 3 0 6 13 6 6 6 3 0 3 3 0 0 0 0 0 0 0 0 0 0 0 0 0 0 0 0 0 0 0
48 42 26 23 19 29 26 23 10 3 0 0 0 0 0 3 6 3 3 0 0 0 0 0 0 0 0 0 0 0 0 0 0 0 0 0 0 0 0 0 0 0 0
45 48 39 32 29 32 29 16 6 10 6 3 3 3 0 0 0 0 0 0 0 0 0 0 0 0 0 0 0 0 0 0 0 0 0 0 0 0 0 0 0 0 0
42 42 48 39 32 26 23 16 10 3 3 0 0 0 0 0 0 0 0 0 0 0 0 0 0 0 0 0 0 0 0 0 0 0 0 0 0 0 0 0 0 0 0
32 32 32 39 29 23 16 10 10 10 6 6 3 3 0 0 0 0 0 0 0 0 0 0 0 0 0 0 0 0 0 0 0 0 0 0 0 0 0 0 0 0 0
23 35 29 19 16 16 16 13 10 6 3 0 0 0 0 0 0 0 0 0 0 0 0 0 0 0 0 0 0 0 0 0 0 0 0 0 0 0 0 0 0 0 0
13 23 16 10 10 13 13 6 3 0 0 0 0 0 0 0 0 0 0 0 0 0 0 0 0 0 0 0 0 0 0 0 0 0 0 0 0 0 0 0 0 0 0

GEFSSE_con_cape1000_078.txt.gz
Probability
58 90 100 100 100 100 100 100 100 100 100 100 100 100 100 100 100 100 100 100 100 100 100 100 100 100 100 100 100 100 100 97 100 100 100 100 100 100 100 100 100 94 100
81 94 100 100 100 100 100 100 100 100 100 100 100 100 100 100 100 100 100 100 100 100 100 100 100 100 100 100 100 100 100 97 100 100 100 100 100 100 100 100 100 100 100
94 94 100 100 100 100 100 100 100 100 100 100 100 100 100 100 100 100 100 100 100 100 100 100 100 100 100 100 100 100 100 100 100 100 100 94 97 97 100 100 100 100 100
100 97 84 100 100 100 100 100 100 100 100 100 100 100 100 100 100 100 100 100 100 100 100 100 100 100 100 100 100 100 100 100 100 100 87 74 81 100 100 100 100 100 100
100 97 100 100 100 100 100 100 100 100 100 100 100 100 100 100 100 100 100 100 100 100 100 100 100 100 100 100 100 97 97 97 97 94 61 68 94 100 100 100 100 100 100
100 94 100 100 100 100 100 100 100 100 100 100 100 100 100 100 100 100 100 100 100 100 100 100 97 94 94 94 90 90 87 90 90 55 61 65 90 100 100 100 100 100 100
100 94 97 100 100 100 100 100 100 100 100 100 100 100 100 100 100 100 100 100 100 100 97 94 84 77 81 77 81 81 81 74 77 45 55 58 90 97 97 94 94 94 97
100 97 97 100 100 100 100 100 100 100 100 100 100 100 100 100 100 100 100 100 100 94 94 77 71 65 68 68 65 65 71 74 58 42 58 68 97 94 90 94 94 94 94
100 100 97 100 100 100 100 100 100 100 100 100 100 100 100 100 100 100 100 100 100 94 74 71 61 48 45 52 52 58 68 65 65 52 52 71 90 90 94 90 94 97 90
100 100 100 94 100 100 100 100 100 100 100 100 100 100 100 100 100 100 100 100 97 77 71 68 58 52 39 35 52 61 58 45 48 35 39 77 90 94 94 90 94 87 87
100 100 100 100 100 100 100 100 100 100 100 100 100 100 100 100 100 100 100 100 94 74 68 61 52 45 39 35 39 45 39 39 26 26 35 81 90 90 94 97 90 87 87
100 100 100 100 100 100 100 100 100 100 100 100 100 97 100 100 100 77 97 94 84 74 68 61 58 48 29 29 32 23 13 26 16 19 48 90 97 97 97 94 90 87 87
97 100 100 100 100 100 100 100 100 100 100 97 97 100 100 100 97 71 97 94 94 77 61 71 58 39 26 13 35 6 6 10 16 13 39 74 87 90 90 90 81 84 84
97 97 100 100 100 100 100 100 100 100 100 100 100 100 100 100 97 65 94 58 81 84 74 52 48 23 26 16 6 6 13 19 13 19 55 74 84 87 87 81 74 77 71
94 97 94 100 100 100 100 100 100 97 97 97 100 100 100 94 84 81 81 81 65 55 58 68 39 35 19 10 10 10 13 19 19 23 39 71 77 81 68 68 68 65 65
100 100 100 100 100 100 100 100 100 97 100 97 97 94 97 81 90 90 90 94 84 71 68 58 52 58 52 26 23 19 19 26 39 35 32 55 58 65 55 52 55 52 45
100 97 97 97 97 100 100 100 100 97 97 97 94 94 100 87 100 97 94 90 84 81 87 87 68 52 52 39 32 29 29 35 35 35 29 32 39 42 42 42 42 39 39
97 97 97 97 97 97 100 100 100 94 97 97 94 97 97 87 97 97 94 81 87 84 84 81 68 55 48 42 35 29 29 32 23 32 26 23 26 19 19 19 19 23 29
97 97 97 97 97 97 100 100 100 100 100 94 90 90 97 90 94 94 94 87 87 87 81 77 68 68 55 45 32 32 19 10 10 6 10 10 10 6 3 13 13 13 10
97 97 97 97 97 97 100 97 97 94 90 87 84 84 81 84 84 87 87 87 87 84 81 74 65 61 48 42 19 0 10 6 6 6 6 6 6 6 0 6 13 10 6
90 97 97 97 97 97 94 94 87 87 81 77 68 68 61 68 68 71 71 81 74 77 65 52 45 35 23 16 23 16 13 6 6 6 6 6 6 6 10 10 6 6 3
90 90 94 94 90 94 94 90 87 77 65 58 48 45 42 48 58 58 55 48 55 48 39 35 26 23 19 10 10 13 13 10 3 0 0 3 0 0 0 0 3 6 3
81 84 87 87 87 87 81 84 71 65 52 35 26 23 26 26 26 26 29 29 29 26 26 23 16 19 13 0 0 6 6 3 3 0 0 0 0 0 0 0 0 0 0
65 71 77 81 81 81 74 77 68 48 42 32 23 16 13 6 10 10 13 13 10 6 3 3 3 6 0 3 0 0 0 0 0 3 0 0 0 0 0 0 0 0 0
45 61 65 65 58 65 68 65 48 42 32 23 13 10 3 3 3 3 0 0 0 0 0 3 0 0 0 0 0 0 0 0 0 0 0 0 0 0 0 0 0 0 0
26 29 42 39 39 39 42 39 35 29 16 10 6 0 0 0 0 0 0 0 0 0 0 0 0 0 0 0 0 0 0 0 0 0 0 0 0 0 0 0 0 0 0

GEFSSE_con_cape1000_084.txt.gz
Probability
94 100 100 100 100 100 100 100 100 100 100 100 100 100 100 100 100 100 100 100 100 100 100 100 100 100 100 100 100 100 100 100 100 100 100 100 100 100 100 100 100 100 100
97 100 100 100 100 100 100 100 100 100 100 100 100 100 100 100 100 100 100 100 100 100 100 100 100 100 100 97 100 100 100 100 100 97 97 100 100 100 100 100 100 97 100
100 100 100 100 100 100 100 100 100 100 100 100 100 100 100 100 100 100 100 100 100 100 100 100 100 97 97 100 100 100 100 100 100 100 100 87 97 100 100 100 100 100 100
100 100 100 100 100 100 100 100 100 100 100 100 100 100 100 100 100 100 100 100 100 100 100 100 100 97 100 100 100 97 97 97 100 100 94 65 77 94 97 100 100 100 100
100 100 100 100 100 100 100 100 100 100 100 100 100 100 100 100 100 100 100 100 100 100 100 100 100 100 100 100 97 97 97 97 97 100 90 77 94 100 97 97 100 100 100
100 100 100 100 100 100 100 100 100 100 100 100 100 100 100 100 100 100 100 100 100 100 100 100 100 97 94 87 87 94 94 90 100 97 77 87 97 100 100 97 94 100 100
97 100 100 100 100 100 100 100 100 100 100 100 100 100 100 100 100 100 100 100 100 100 100 97 94 87 87 84 81 81 87 90 87 77 74 81 97 100 100 97 94 94 87
100 100 100 100 100 100 100 100 100 100 100 100 100 100 100 100 100 100 100 100 100 100 87 84 81 77 74 81 74 74 84 84 77 65 81 94 100 100 97 94 87 84 84
100 100 100 100 100 100 100 100 100 100 100 100 100 100 100 100 100 100 100 100 100 94 87 77 71 68 74 68 65 68 84 90 74 61 68 87 97 100 94 94 94 87 87
100 100 100 100 100 100 100 100 100 100 100 100 100 100 100 100 100 100 100 100 97 90 77 68 58 52 55 61 68 68 87 87 35 32 68 87 100 97 94 90 87 81 81
97 97 94 97 97 97 100 100 100 100 100 100 100 100 100 100 100 100 97 100 97 84 68 65 58 52 61 68 81 84 81 35 13 35 58 90 97 94 94 90 94 74 74
97 84 77 94 97 97 94 100 100 100 100 100 100 100 100 100 100 97 100 100 100 84 74 74 74 68 45 23 45 81 32 26 10 29 65 81 90 87 90 87 87 84 77
100 97 87 90 100 90 100 97 100 100 100 100 100 100 100 100 100 100 97 100 94 84 68 71 71 52 32 26 45 29 26 13 10 19 71 87 87 87 90 87 81 81 77
100 100 100 97 100 100 100 100 100 100 100 100 100 100 100 100 100 100 100 97 97 94 97 84 74 68 58 52 52 26 19 16 19 39 61 87 87 87 84 84 84 81 81
100 100 100 100 100 100 100 100 100 100 100 100 100 100 100 100 100 100 100 100 97 100 100 100 90 77 61 58 42 26 26 26 29 45 52 81 81 87 84 84 81 74 68
97 100 100 100 100 100 100 100 100 100 100 100 97 100 100 100 100 100 100 100 100 100 100 94 84 84 71 71 52 45 35 32 35 52 39 77 77 77 74 71 65 61 52
97 100 100 100 100 100 100 100 100 100 97 97 97 97 100 100 100 100 100 100 100 97 90 87 84 74 74 68 68 52 48 45 39 42 32 26 39 68 68 65 48 45 39
97 97 97 100 100 100 100 100 97 97 97 97 97 97 97 97 97 97 97 94 90 90 90 90 84 71 71 71 65 61 48 52 32 39 32 26 13 10 42 39 42 35 35
94 94 94 94 100 100 100 97 97 97 97 97 97 97 97 97 97 97 94 90 87 90 90 84 74 81 77 71 55 48 45 45 29 19 19 10 10 10 3 6 26 19 16
94 94 97 97 97 97 97 97 97 97 97 94 87 84 87 81 84 87 84 81 81 84 84 81 68 68 48 45 23 23 29 19 23 16 6 6 0 0 0 0 0 3 6
84 87 97 97 97 97 94 97 97 90 84 74 65 68 68 61 61 61 61 65 65 61 58 52 45 35 32 29 19 13 10 3 3 10 6 3 3 0 0 0 0 0 0
81 81 84 84 87 90 94 94 94 84 68 61 52 42 35 42 39 45 52 52 52 48 42 32 39 32 26 16 13 0 0 0 6 0 0 0 0 0 0 0 0 0 0
65 68 74 74 74 77 84 81 77 68 55 48 35 26 19 19 19 23 23 23 23 23 19 19 19 13 6 0 0 0 0 0 0 0 0 0 0 0 0 0 0 0 0
48 52 55 74 74 71 71 68 65 58 48 35 23 19 13 6 6 6 6 13 16 13 10 10 3 3 0 0 0 0 0 0 0 0 0 0 0 0 0 0 0 0 0
23 29 39 42 45 55 58 55 52 45 29 13 13 10 6 6 6 6 6 3 3 3 0 0 0 0 0 0 0 0 0 0 0 0 0 0 0 0 0 0 0 0 0
13 19 29 29 29 32 39 35 35 26 19 10 10 0 0 0 0 0 0 0 0 0 0 0 0 0 0 0 0 0 0 0 0 0 0 0 0 0 0 0 0 0 0

GEFSSE_con_cape1000_090.txt.gz
Probability
94 100 100 100 100 100 100 100 100 100 100 100 100 100 100 100 100 100 100 100 100 100 100 100 100 100 100 100 100 100 100 100 100 100 100 100 100 100 100 100 100 97 100
97 100 100 100 100 100 100 100 100 100 100 100 100 100 100 100 100 100 100 100 100 100 100 100 100 100 100 100 100 100 100 100 100 100 100 100 100 100 100 100 100 100 100
100 100 100 100 100 100 100 100 100 100 100 100 100 100 100 100 100 100 100 100 100 100 100 100 100 100 100 100 100 100 100 100 100 100 100 94 100 100 100 100 100 100 100
100 100 100 100 100 100 100 100 100 100 100 100 100 100 100 100 100 100 100 100 100 100 100 100 100 100 97 94 94 97 100 100 100 100 65 87 97 100 100 100 100 100 100
100 97 97 100 100 100 100 100 100 100 100 100 100 100 100 100 100 100 100 100 100 100 100 100 100 100 100 94 94 97 100 100 97 84 61 68 84 100 100 100 100 100 100
97 97 100 100 100 100 100 100 100 100 100 100 100 100 100 100 100 100 100 100 100 100 100 100 100 100 94 90 90 90 94 97 81 45 48 68 87 97 100 100 100 100 100
97 100 100 100 100 100 100 100 100 100 100 100 100 100 100 100 100 100 100 100 100 100 100 100 94 87 87 84 81 74 74 84 65 23 42 61 87 97 97 100 100 97 97
100 100 100 100 100 100 100 100 100 100 100 100 100 100 100 100 100 100 100 100 100 100 100 94 87 84 81 71 74 81 87 84 61 29 35 48 84 94 94 94 97 97 97
100 100 100 100 100 100 100 100 100 100 100 100 100 100 100 100 100 100 100 100 100 100 97 87 81 74 77 81 87 90 87 90 16 16 32 48 84 87 94 94 97 94 90
100 100 100 100 100 100 100 100 100 100 100 100 100 100 100 100 100 100 100 100 100 100 87 77 77 77 81 81 84 81 81 61 10 6 10 58 81 87 87 87 94 94 90
97 100 100 100 100 100 100 100 100 100 100 100 100 100 100 100 100 100 100 100 100 94 87 87 84 81 74 74 81 81 74 19 0 3 16 68 87 90 90 94 90 90 90
94 94 97 97 100 100 100 100 100 100 100 100 100 100 84 74 74 90 100 100 100 94 94 94 87 84 58 23 19 52 32 6 0 0 16 74 90 84 84 87 87 81 81
90 90 94 90 90 90 94 100 94 87 90 87 90 84 58 42 48 71 65 97 90 90 71 68 71 58 26 10 3 0 6 6 0 6 13 77 87 81 87 84 84 87 87
74 81 87 87 74 71 77 81 71 81 77 65 74 61 32 29 23 23 35 45 45 29 29 16 13 16 10 10 3 0 3 0 0 3 16 84 84 84 87 84 84 84 81
68 65 74 74 71 71 71 68 71 55 55 55 58 52 35 13 23 26 23 19 23 19 13 10 10 10 10 6 0 0 3 0 3 3 23 71 77 77 74 77 74 71 71
65 55 61 58 65 52 55 61 61 58 52 48 52 55 42 16 19 23 16 16 16 13 10 6 6 3 0 0 0 3 6 6 0 3 13 39 68 71 61 61 71 71 68
45 52 48 55 52 52 52 55 58 48 45 45 55 61 58 26 16 19 13 10 13 13 13 13 6 3 3 3 0 0 3 3 3 3 3 13 16 42 65 52 52 55 48
26 42 39 52 52 48 58 45 52 55 45 58 55 48 45 32 16 13 16 19 10 10 10 6 3 3 3 0 0 0 0 0 0 0 0 0 0 0 16 35 42 35 39
29 32 42 52 52 52 58 52 55 48 42 45 48 35 45 42 32 19 19 10 6 6 6 10 3 0 0 0 3 3 0 0 0 0 0 0 0 0 0 0 16 19 13
29 29 32 42 52 61 68 55 52 42 35 26 26 26 29 29 19 13 13 3 3 3 3 3 3 3 0 3 0 0 0 0 0 0 0 0 0 0 0 0 0 0 0
29 26 29 39 45 48 52 42 42 35 35 26 23 19 19 19 16 13 13 6 6 3 3 6 3 3 0 0 0 0 0 0 0 0 0 0 0 0 0 0 0 0 0
23 29 29 32 39 42 39 29 29 26 26 13 13 10 10 13 13 10 6 6 6 6 3 3 3 3 0 0 0 0 0 0 0 0 0 0 0 0 0 0 0 0 0
13 16 26 19 23 26 29 26 26 16 10 6 6 6 6 6 6 6 6 6 6 6 3 3 0 0 0 0 0 0 0 0 0 0 0 0 0 0 0 0 0 0 0
13 19 19 16 16 19 26 19 19 13 10 6 6 6 6 6 6 6 3 3 3 3 3 0 0 0 0 0 0 0 0 0 0 0 0 0 0 0 0 0 0 0 0
10 13 10 13 13 13 16 13 13 10 3 6 6 6 6 6 6 6 6 3 0 0 0 0 0 0 0 0 0 0 0 0 0 0 0 0 0 0 0 0 0 0 0
10 10 10 10 13 13 13 10 6 3 3 6 6 3 3 0 0 0 0 0 0 0 0 0 0 0 0 0 0 0 0 0 0 0 0 0 0 0 0 0 0 0 0

GEFSSE_con_cape1000_096.txt.gz
Probability
68 90 100 100 100 100 100 100 100 100 100 100 100 100 100 100 100 100 100 100 100 100 100 100 100 100 100 100 100 100 100 100 97 100 100 100 100 100 100 97 97 90 97
77 94 100 100 100 100 100 100 100 100 100 100 100 100 100 100 100 100 100 100 100 100 100 100 100 100 100 100 100 100 100 100 100 100 100 100 100 100 100 97 94 94 97
84 97 100 100 100 100 100 100 100 100 100 100 100 100 100 100 100 100 100 100 100 100 100 100 100 97 100 100 100 100 100 100 100 100 100 100 100 100 100 100 97 97 97
94 100 100 100 100 100 100 100 100 100 100 100 100 100 100 100 100 100 100 100 100 100 100 100 100 97 100 100 100 100 100 100 100 100 94 94 100 100 100 100 100 97 97
97 100 100 100 100 100 100 100 100 100 100 100 100 100 100 100 100 100 100 100 100 100 100 100 97 97 100 100 100 100 100 100 97 90 77 87 100 100 100 100 97 97 97
97 97 100 100 100 100 100 100 100 100 100 100 100 100 100 100 100 100 100 100 100 100 100 100 100 100 90 90 94 94 97 94 77 58 68 77 94 100 100 100 100 97 97
97 97 100 100 100 100 100 100 100 100 100 100 100 100 100 100 100 100 100 100 100 100 100 100 97 90 90 90 94 90 94 90 16 42 65 74 94 100 100 100 100 100 100
94 97 100 100 100 100 100 100 100 100 100 100 100 100 100 100 100 100 100 100 100 100 100 97 90 90 90 90 94 90 81 81 55 39 55 68 81 94 90 97 100 97 97
90 100 100 100 100 100 100 100 100 100 100 100 100 100 100 100 100 100 100 100 100 100 97 90 90 87 84 87 81 84 81 81 13 39 42 55 81 94 87 90 90 90 90
97 97 97 97 97 97 97 97 97 100 100 100 100 100 100 100 100 100 100 100 100 100 87 87 84 74 81 81 74 74 68 45 13 13 39 58 81 94 94 94 97 97 90
97 97 97 97 97 97 97 97 97 100 100 100 100 100 100 97 97 97 100 100 100 97 90 90 87 84 77 71 71 77 55 16 6 3 19 48 84 90 90 97 94 87 87
94 94 97 97 97 97 97 97 97 97 100 100 100 100 94 90 94 100 100 100 100 100 97 90 90 84 52 32 16 42 16 6 6 6 10 48 87 90 94 94 94 87 84
94 94 97 97 97 97 97 97 97 97 97 94 97 94 77 58 68 77 77 84 87 90 71 68 68 55 42 26 13 6 3 6 6 6 16 55 87 90 90 90 87 84 84
90 90 87 87 87 90 90 90 87 87 84 87 84 74 52 42 39 39 32 42 58 65 61 39 26 23 13 10 10 6 3 3 6 6 10 39 84 84 84 81 74 81 77
84 87 87 87 87 84 87 87 81 77 77 71 68 58 45 32 29 23 19 13 32 29 19 16 6 6 6 6 6 3 3 3 3 6 10 29 65 74 74 77 71 65 65
71 68 81 84 84 81 77 74 74 71 68 52 61 48 35 26 26 16 16 16 13 19 13 13 10 10 10 3 3 3 6 6 6 3 10 23 35 55 71 74 71 71 58
61 61 65 71 74 68 65 68 71 71 58 52 45 48 32 23 13 13 16 10 13 13 10 10 6 6 6 3 3 3 3 6 3 3 6 10 16 26 48 45 58 55 52
52 48 52 58 48 48 48 45 55 45 39 39 29 26 26 26 13 10 10 10 10 10 3 3 6 6 3 0 3 3 3 3 3 3 3 3 6 10 23 19 23 26 19
35 32 42 35 35 42 35 32 26 26 23 19 13 19 26 23 16 10 13 6 6 6 3 3 3 3 3 0 0 0 0 0 0 3 3 0 0 3 3 3 13 16 16
29 26 23 23 26 29 29 13 10 10 10 16 10 10 10 16 16 6 6 3 3 3 3 3 3 3 3 0 0 0 0 0 0 0 0 0 0 0 0 0 0 0 0
23 23 26 26 29 23 23 19 10 10 6 6 6 10 10 10 13 6 6 6 3 3 3 3 3 3 3 0 0 0 0 0 0 0 0 0 0 0 0 0 0 0 0
19 19 23 23 19 23 16 13 10 6 6 6 6 6 10 10 10 6 6 6 3 3 3 3 3 3 0 0 0 0 0 0 0 0 0 0 0 0 0 0 0 0 0
19 19 19 16 16 10 10 6 6 3 3 3 3 3 3 6 6 6 6 3 3 3 3 3 3 3 0 0 0 0 0 0 0 0 0 0 0 0 0 0 0 0 0
16 13 13 13 3 3 6 6 3 3 3 3 3 3 3 3 6 6 6 3 3 3 3 3 3 0 0 0 0 0 0 0 0 0 0 0 0 0 0 0 0 0 0
6 6 3 3 6 6 6 10 6 3 3 3 3 3 3 6 6 6 6 3 3 3 3 3 0 0 0 0 0 0 0 0 0 0 0 0 0 0 0 0 0 0 0
3 0 3 10 10 6 10 6 3 3 3 3 3 3 3 3 3 3 0 0 0 0 0 0 0 0 0 0 0 0 0 0 0 0 0 0 0 0 0 0 0 0 0

GEFSSE_con_cape1000_102.txt.gz
Probability
81 87 100 100 100 100 100 100 100 100 100 100 100 100 100 100 100 100 100 100 100 100 100 100 100 100 100 100 100 100 100 100 100 100 100 97 97 97 97 94 97 81 97
87 87 100 100 100 100 100 100 100 100 100 100 100 100 100 100 100 100 100 100 100 100 100 100 100 100 100 100 100 100 100 100 100 100 100 97 94 97 94 84 90 90 97
87 90 100 100 100 100 100 100 100 100 100 100 100 100 100 100 100 100 100 100 100 100 100 100 100 100 100 100 100 100 100 100 100 100 100 90 84 90 87 87 94 97 97
90 94 94 100 100 100 100 100 100 100 100 100 100 100 100 100 100 100 100 100 100 100 100 100 97 100 100 100 100 100 100 100 100 100 94 65 81 87 87 87 94 97 97
94 97 100 100 100 100 100 100 100 100 100 100 100 100 100 100 100 100 100 100 100 100 100 97 97 100 100 97 100 100 97 100 100 97 45 55 81 97 94 94 94 97 97
94 97 100 100 100 100 100 100 100 100 100 100 100 100 100 100 100 100 100 100 100 100 97 97 97 94 97 94 97 100 97 97 94 45 48 68 90 97 97 97 97 97 97
90 97 100 100 100 100 100 100 100 100 100 100 100 100 100 100 100 100 100 100 100 100 97 94 90 90 94 90 94 97 94 90 77 32 45 58 84 97 94 94 94 97 94
94 97 97 97 100 100 100 100 100 100 100 100 100 100 100 100 100 100 100 100 100 100 100 94 94 94 94 94 90 90 87 94 55 35 48 71 90 90 90 90 87 87 94
90 97 97 97 97 97 97 97 97 100 100 100 100 100 100 100 100 100 100 100 100 100 97 97 94 90 87 90 87 84 77 74 48 45 39 65 87 94 90 90 87 87 87
94 94 97 97 94 97 97 97 97 97 100 100 100 100 100 100 100 100 100 100 100 97 94 90 87 81 84 81 74 71 61 58 52 39 45 74 84 90 90 90 84 84 84
87 90 94 90 94 94 97 97 97 97 100 100 100 100 100 100 97 100 100 100 97 94 87 87 81 77 71 65 61 58 52 52 23 35 61 77 87 87 94 87 90 90 84
90 90 90 94 94 97 97 97 97 97 97 97 100 100 97 97 100 87 97 100 97 97 94 90 84 71 48 55 42 39 35 35 19 39 48 81 87 84 90 87 87 87 81
97 97 94 94 94 94 94 94 97 97 94 97 100 100 97 97 97 94 97 97 100 97 87 97 77 55 45 48 55 26 29 19 32 29 45 71 68 81 81 84 84 81 84
94 94 90 90 94 87 90 90 90 94 94 94 94 97 97 97 97 97 97 90 94 97 87 74 74 42 45 35 29 35 26 26 35 32 71 65 61 68 77 81 81 77 77
87 90 87 84 84 87 87 90 90 94 94 94 94 90 90 94 94 90 97 94 74 77 84 81 61 65 55 39 26 29 32 29 29 29 42 48 65 55 65 61 65 65 61
84 81 84 84 84 87 87 84 87 90 90 90 94 90 87 94 94 90 90 94 90 81 81 74 71 71 61 65 48 35 35 32 35 42 35 39 48 48 45 48 48 42 42
77 71 81 84 77 77 81 77 84 87 87 84 84 84 77 87 90 90 87 94 94 94 94 87 84 74 74 65 48 52 42 32 35 42 39 32 32 23 29 26 32 32 32
77 77 74 71 77 81 74 77 74 74 81 81 77 77 77 77 87 87 77 84 84 81 84 77 74 71 58 58 52 29 19 39 23 23 32 29 29 23 26 26 23 26 23
68 71 71 74 74 74 74 68 68 71 65 61 68 68 71 77 81 74 77 71 71 65 68 52 61 52 45 45 23 29 23 16 19 16 16 10 16 23 26 13 16 16 13
68 71 74 74 68 68 68 61 58 61 58 55 58 65 58 55 58 65 58 61 58 55 52 48 48 52 45 29 10 6 13 13 13 13 10 6 10 3 3 6 16 13 6
45 58 61 61 55 61 61 61 61 52 52 48 42 39 42 45 48 45 45 52 52 48 48 39 42 42 32 19 13 10 6 3 6 10 6 3 3 3 3 3 3 3 10
42 42 45 55 55 55 58 58 52 45 35 29 26 29 29 26 32 32 39 42 39 39 35 32 35 29 16 16 13 13 10 6 3 0 3 0 0 3 3 3 3 3 3
35 39 45 39 45 52 52 45 35 32 26 19 23 26 23 26 26 26 26 32 29 32 32 26 29 23 19 13 10 10 6 6 6 0 0 3 3 3 3 3 3 3 3
26 29 39 32 35 42 39 42 26 26 23 23 26 13 13 10 10 16 19 19 19 26 23 23 19 19 13 10 10 6 6 6 0 0 0 0 0 0 3 0 0 0 0
23 23 26 32 35 35 35 39 26 29 19 16 10 6 6 3 6 6 10 13 16 16 16 10 13 10 13 10 10 3 0 0 0 0 0 0 0 0 0 0 0 0 0
13 23 26 23 23 29 26 23 23 23 16 6 3 3 3 3 3 3 6 3 3 3 3 3 6 6 6 6 6 3 3 0 0 0 0 0 0 0 0 0 0 0 0

GEFSSE_con_cape1000_108.txt.gz
Probability
84 97 100 100 100 100 100 100 100 100 100 100 100 100 100 100 100 100 100 100 100 100 100 100 100 100 100 100 100 100 100 100 100 97 97 97 94 94 97 97 90 84 94
94 100 100 100 100 100 100 100 100 100 100 100 100 100 100 100 100 100 100 100 100 100 100 97 97 97 100 100 100 100 100 100 100 97 97 97 90 90 90 97 90 87 90
97 97 100 100 100 100 100 100 100 100 100 100 100 100 100 100 100 100 100 100 100 100 97 97 97 97 100 100 100 100 100 100 97 97 97 71 81 84 94 97 94 90 90
97 97 100 100 100 100 100 100 100 100 100 100 100 100 100 100 100 100 100 100 97 97 97 97 97 97 100 100 100 100 100 100 97 97 94 65 42 87 90 90 90 87 87
97 97 100 100 100 100 100 100 100 100 100 100 100 100 100 100 100 100 100 100 97 97 97 97 97 97 97 100 100 97 97 97 97 94 68 68 68 81 84 87 94 90 81
97 97 100 100 100 100 100 100 100 100 100 100 100 100 100 100 100 100 100 97 97 97 97 97 97 97 97 97 94 90 90 90 94 87 77 68 71 94 87 81 77 87 87
97 94 97 100 97 97 97 97 97 100 100 100 100 100 100 100 100 100 100 100 97 97 94 94 94 94 94 90 84 87 87 94 87 74 65 74 81 94 90 84 81 81 81
94 97 97 97 97 97 97 97 97 97 100 100 100 100 100 100 100 100 100 100 97 94 94 94 94 94 94 87 81 77 84 90 71 65 71 81 97 94 90 81 81 81 81
94 97 97 97 97 97 97 97 97 97 100 100 100 100 100 100 100 100 100 100 100 97 97 94 94 94 90 90 84 81 74 90 71 52 68 81 97 94 87 87 81 81 74
94 90 94 94 97 97 97 97 97 97 100 100 100 100 100 100 100 100 100 100 100 100 97 94 94 97 90 90 81 74 68 84 39 39 48 74 90 87 84 84 84 84 77
90 87 81 90 97 97 94 97 97 100 100 100 100 100 100 100 100 100 100 97 97 97 97 94 94 90 90 84 84 68 68 39 26 35 52 87 94 87 84 84 84 81 71
87 84 81 87 90 84 84 94 97 97 97 94 94 97 100 100 94 90 97 97 94 94 94 97 94 94 81 61 68 84 39 23 16 32 55 90 90 90 81 77 77 74 71
84 87 81 81 81 74 77 90 90 87 87 87 87 90 90 90 90 94 90 94 97 94 90 90 90 71 39 45 55 39 32 10 19 19 52 81 84 84 77 74 74 71 71
74 74 71 77 84 81 81 81 84 84 87 77 84 84 77 84 84 84 84 84 94 87 94 84 74 58 52 48 42 26 19 26 42 35 61 81 77 74 74 71 68 65 65
71 81 71 77 74 74 81 81 84 84 84 84 84 84 84 81 65 65 68 81 77 77 90 90 74 65 45 35 29 29 29 32 35 35 39 68 74 74 68 68 65 48 48
74 71 71 71 68 74 77 81 81 74 77 77 77 77 71 65 58 61 65 71 74 77 81 81 81 74 71 61 55 42 45 48 65 65 29 42 52 55 58 55 48 39 39
71 77 71 71 68 68 74 81 74 74 68 81 68 61 58 58 58 58 61 71 71 74 74 77 77 81 68 61 61 52 52 42 45 52 42 32 26 32 39 35 32 26 26
71 71 68 71 71 65 65 74 81 81 77 74 68 61 55 58 58 61 61 65 61 65 71 74 68 68 55 58 55 42 42 42 39 29 35 29 19 13 26 26 26 26 26
68 71 58 61 58 61 61 71 71 71 77 68 65 61 55 52 45 58 58 55 65 68 65 55 61 55 48 42 35 35 29 23 23 16 19 19 19 23 19 19 23 23 16
65 65 61 55 61 61 61 58 58 58 55 55 52 48 52 48 45 42 45 45 48 48 45 42 45 39 42 39 10 10 13 16 19 13 19 16 10 6 13 6 13 10 13
52 55 55 52 45 52 55 55 55 52 42 39 35 29 29 32 39 45 48 48 42 39 45 29 29 26 26 19 3 3 3 6 10 13 10 6 0 3 3 6 3 3 3
35 35 45 39 45 48 48 45 52 42 35 32 23 23 23 26 35 32 35 32 32 39 32 32 26 19 13 10 10 0 0 0 0 0 0 0 0 0 3 3 3 3 3
26 32 35 42 42 45 45 45 45 39 26 23 23 19 19 19 19 19 19 23 26 29 19 16 19 16 10 13 6 10 3 0 0 0 0 0 0 0 0 0 0 0 0
26 23 32 35 26 32 35 35 32 32 29 26 23 16 13 13 16 16 19 19 23 23 23 13 10 10 6 6 10 6 6 0 0 0 0 0 0 0 0 0 0 0 0
23 19 23 23 26 19 29 35 32 23 29 26 19 6 10 6 6 10 10 10 10 13 16 16 6 6 6 3 3 0 0 3 0 0 0 0 0 0 0 0 0 0 0
16 16 16 13 13 13 19 23 19 16 16 16 16 10 10 6 10 10 6 6 6 6 6 6 3 3 3 3 0 0 6 3 0 0 0 0 0 0 0 0 0 0 0

GEFSSE_con_cape1000_114.txt.gz
Probability
84 97 100 100 100 100 100 100 100 100 100 100 100 100 100 100 100 100 100 100 100 100 100 100 100 100 100 100 100 100 100 100 100 100 100 100 100 97 94 94 94 81 90
77 97 100 100 100 100 100 100 100 100 100 100 100 100 100 100 100 100 100 100 100 100 100 100 100 100 100 100 100 100 100 100 100 100 100 100 97 97 97 94 87 84 90
81 97 100 100 100 100 100 100 100 100 100 100 100 100 100 100 100 100 100 100 100 100 100 100 100 100 100 100 100 100 100 100 100 100 97 87 97 97 97 97 94 94 90
84 100 100 100 100 100 100 100 100 100 100 100 100 100 100 100 100 100 100 100 100 100 100 100 100 100 100 100 100 100 100 100 100 90 32 55 81 97 97 97 94 90 90
90 94 100 100 100 100 100 100 100 100 100 100 100 100 100 100 100 100 100 100 100 97 97 97 100 100 100 100 100 100 100 97 97 61 32 26 81 97 97 94 90 87 84
84 87 97 97 97 100 100 100 100 100 100 100 100 100 100 100 100 100 100 100 97 97 97 97 97 100 100 100 97 97 94 97 81 52 32 35 68 97 97 97 87 90 94
84 90 97 97 97 100 97 97 100 100 100 100 100 100 100 100 100 100 100 100 97 97 97 97 97 100 97 97 97 94 90 94 52 29 29 26 74 97 94 94 94 90 90
87 94 97 97 97 97 97 100 100 100 100 100 100 100 100 100 100 100 100 100 100 100 94 94 94 94 94 97 87 90 90 90 61 35 23 19 81 94 94 97 97 97 97
94 90 94 94 94 94 94 97 94 94 94 97 100 100 100 100 100 100 100 100 100 97 94 94 94 94 90 90 90 90 90 90 19 6 23 29 90 94 97 97 94 90 84
87 87 87 90 94 94 94 94 94 94 94 94 94 94 97 97 97 100 100 100 100 100 94 94 94 94 94 84 84 87 84 65 10 6 6 45 94 97 97 94 90 84 84
71 71 84 90 90 90 94 90 90 90 90 90 90 94 90 87 90 94 97 97 97 100 97 97 97 97 90 87 90 90 68 26 6 6 13 68 94 97 87 87 87 84 84
65 68 68 84 81 81 84 87 87 84 84 84 87 87 84 84 84 84 87 90 90 97 94 94 97 97 90 48 58 74 39 16 3 3 19 81 94 90 87 84 84 81 77
61 58 61 61 74 81 77 77 77 77 84 81 81 81 74 65 68 74 71 81 77 74 74 77 87 81 55 16 13 10 10 6 3 0 19 87 87 87 81 81 84 77 71
58 48 48 61 61 65 74 77 74 74 74 74 74 71 58 52 58 55 55 55 55 52 35 35 39 26 16 10 3 3 3 0 0 0 16 81 84 77 77 77 77 74 65
39 39 45 48 48 55 68 71 68 61 65 61 52 65 42 35 35 26 32 35 42 23 19 13 6 3 6 6 0 0 0 0 0 0 10 68 68 71 71 61 61 58 58
42 42 39 29 39 42 45 55 52 52 48 45 48 45 39 29 29 23 23 19 19 13 10 6 3 3 6 3 0 0 0 0 0 0 3 26 45 45 48 48 48 55 42
35 35 32 35 35 32 32 29 39 39 35 45 32 39 35 32 29 26 13 13 10 6 3 6 3 3 3 0 0 0 0 0 0 3 6 10 19 35 35 35 39 32 39
26 29 32 32 23 23 29 16 19 16 26 19 29 26 26 26 19 13 10 13 6 6 3 3 0 3 3 0 0 0 0 0 3 3 3 3 3 10 16 26 26 29 26
29 19 29 26 23 23 16 13 6 6 13 10 10 16 23 23 16 13 10 6 6 6 3 3 0 0 0 0 0 0 0 0 3 3 3 3 3 3 3 10 16 16 19
19 13 16 26 26 19 19 16 6 3 3 10 6 10 13 13 19 10 13 13 10 3 3 3 0 0 0 0 0 0 0 0 0 0 0 0 0 0 0 0 0 6 13
13 10 13 26 29 29 23 13 10 6 3 10 10 10 10 13 13 10 10 6 6 6 3 3 0 0 0 0 0 0 0 0 0 0 0 0 0 0 0 0 0 0 0
19 19 16 19 23 23 16 13 6 10 10 10 13 10 6 6 6 6 6 6 3 3 3 3 0 0 0 0 0 0 0 0 0 0 0 0 0 0 0 0 0 0 0
13 13 16 19 16 13 13 13 6 6 13 10 6 3 6 6 6 6 6 6 6 3 3 3 0 0 0 0 0 0 0 0 0 0 0 0 0 0 0 0 0 0 0
10 10 10 13 13 10 6 6 3 3 6 10 3 3 6 6 6 6 6 6 6 6 6 3 3 0 0 0 0 0 0 0 0 0 0 0 0 0 0 0 0 0 0
6 6 13 13 10 6 6 6 3 3 3 6 3 3 6 3 6 6 6 6 6 6 6 3 0 0 0 0 0 0 0 0 0 0 0 0 0 0 0 0 0 0 0
6 6 10 6 6 6 6 3 3 3 3 3 3 3 3 3 3 3 3 3 3 3 3 0 0 0 0 0 0 0 0 0 0 0 0 0 0 0 0 0 0 0 0

GEFSSE_con_cape1000_120.txt.gz
Probability
65 90 100 100 97 100 100 100 100 100 100 100 100 100 100 100 100 100 100 100 100 100 100 100 100 100 100 100 100 100 100 100 100 100 97 97 97 97 97 90 81 77 90
68 100 100 100 100 100 100 100 100 100 100 100 100 100 100 100 100 100 100 100 100 100 100 100 100 100 100 100 100 100 100 100 100 100 97 97 97 97 97 84 77 77 84
81 100 100 100 100 100 100 100 100 100 100 100 100 100 100 100 100 100 100 100 100 100 100 100 100 100 100 100 100 100 100 100 100 100 97 94 97 97 94 90 87 87 84
87 97 100 100 100 100 100 100 100 100 100 100 100 100 100 100 100 100 100 100 100 100 100 100 100 100 100 100 100 100 100 100 100 97 87 87 90 97 97 90 84 81 87
90 97 100 100 100 100 100 100 100 100 100 100 100 100 100 100 100 100 100 100 100 100 100 100 100 100 100 100 100 100 100 100 97 84 68 81 94 97 97 90 84 84 84
90 94 97 100 100 100 100 100 100 100 100 100 100 100 100 100 100 100 100 100 100 100 100 100 100 100 100 100 100 100 100 97 77 48 58 84 94 97 97 94 90 84 87
84 87 94 100 100 100 100 100 100 100 100 100 100 100 100 100 100 100 100 100 100 100 100 100 100 100 100 97 100 97 97 94 42 42 48 84 94 97 94 87 94 90 84
84 90 94 97 97 100 97 97 97 100 100 100 100 100 100 100 100 100 100 100 100 100 100 100 97 97 97 97 97 94 97 90 55 39 48 61 94 94 94 97 94 87 87
84 87 87 90 90 90 94 94 94 97 97 97 97 100 100 100 100 100 100 100 100 100 97 94 97 97 97 100 97 100 87 84 16 32 32 52 87 94 97 97 87 87 87
81 84 84 84 84 87 87 94 94 94 94 97 94 97 97 97 97 97 97 100 100 97 97 94 94 97 100 97 97 87 94 71 10 16 26 35 90 97 94 90 90 84 81
81 84 84 84 84 84 84 87 87 90 90 90 90 94 94 94 94 94 94 97 94 94 94 94 90 97 97 97 94 97 68 23 10 13 23 42 94 90 87 87 87 84 84
71 77 74 77 81 84 84 84 84 84 84 87 87 87 87 87 87 87 90 94 94 97 97 97 94 90 81 71 77 68 35 19 10 16 23 48 84 87 87 87 87 77 77
58 68 65 71 71 77 74 74 74 77 77 81 84 84 74 74 77 81 81 81 84 84 81 87 77 68 58 39 26 23 16 13 16 13 19 61 84 87 84 81 77 68 71
48 55 58 58 68 65 65 71 71 71 71 71 68 74 71 71 68 71 71 74 74 68 52 52 52 42 35 16 13 10 6 6 6 13 16 55 81 81 77 74 71 71 61
48 52 55 55 61 61 61 55 55 48 55 58 61 58 58 52 58 48 55 52 52 48 48 39 32 29 23 13 13 6 6 3 3 3 10 35 65 74 71 74 61 61 48
42 42 48 45 42 45 45 45 45 42 45 42 48 48 42 42 42 35 26 32 32 32 32 26 23 19 13 13 10 3 0 0 0 0 3 23 35 55 65 58 55 52 45
35 32 39 35 35 35 39 29 39 42 39 39 35 39 39 35 32 26 26 26 32 23 19 16 16 13 6 6 3 3 3 0 0 0 6 6 19 42 42 52 42 42 42
29 35 35 35 32 32 26 26 23 23 26 29 26 26 26 26 19 13 19 26 19 13 13 13 13 13 3 0 0 3 3 0 0 0 6 3 6 10 29 32 39 35 35
26 26 26 26 23 26 19 16 13 10 13 16 13 16 19 26 16 13 10 10 10 13 10 10 10 6 3 0 0 0 0 0 0 0 3 3 3 10 13 16 16 19 19
19 19 19 19 19 23 19 10 3 6 6 6 10 10 10 16 16 10 6 6 3 10 10 10 10 3 0 0 0 0 0 0 0 0 0 3 3 3 0 3 10 6 13
19 19 19 16 16 16 19 16 3 3 3 3 3 3 3 6 6 10 10 3 3 6 10 10 10 0 0 0 0 0 0 0 0 0 0 0 3 3 0 0 0 3 3
10 10 13 13 16 19 19 16 6 3 3 3 0 0 3 3 6 6 10 3 3 3 6 6 6 0 0 0 0 0 0 0 0 0 0 0 0 0 0 0 0 0 0
13 13 10 10 16 13 13 6 3 0 0 0 0 0 0 3 3 3 10 3 3 3 3 6 6 0 0 0 0 0 0 0 0 0 0 0 0 0 0 0 0 0 0
10 6 10 3 6 10 6 3 6 3 0 0 0 0 0 0 3 3 3 3 3 3 3 3 3 0 0 0 0 0 0 0 0 0 0 0 0 0 0 0 0 0 0
3 0 0 0 0 3 6 3 3 3 0 0 0 0 0 0 0 3 3 3 3 3 3 3 3 0 0 0 0 0 0 0 0 0 0 0 0 0 0 0 0 0 0
0 3 3 0 3 0 0 3 3 0 0 0 0 0 0 0 0 0 3 3 3 3 3 3 3 0 0 0 0 0 0 0 0 0 0 0 0 0 0 0 0 0 0

GEFSSE_con_cape1000_126.txt.gz
Probability
68 87 97 97 100 100 100 100 97 97 100 100 100 100 100 100 100 100 100 100 100 100 100 100 100 100 100 100 100 100 97 97 97 97 97 97 94 94 90 84 81 61 90
71 87 100 100 100 100 100 100 97 97 100 100 100 100 100 100 100 100 100 100 100 100 100 100 100 100 100 100 100 100 100 97 97 97 97 87 84 87 87 65 74 84 90
81 90 94 100 100 100 100 100 100 100 100 100 100 100 100 100 100 100 100 100 100 100 100 100 100 100 100 100 100 100 100 97 97 97 97 55 65 81 77 68 84 90 90
87 94 90 100 100 100 100 100 100 100 100 100 100 100 100 100 100 100 100 100 100 97 97 100 100 100 100 100 100 100 100 97 94 94 68 35 35 74 77 71 84 87 87
94 97 97 100 100 100 100 100 100 100 100 100 100 100 100 100 100 100 100 100 100 100 97 100 100 100 100 100 100 100 100 94 94 87 52 45 61 84 81 84 84 84 87
94 94 97 100 100 100 100 100 100 100 100 100 100 100 100 100 100 100 100 100 100 100 97 100 100 100 100 97 100 100 97 97 87 32 39 45 68 87 81 87 90 81 84
81 90 94 97 100 100 100 100 100 100 100 100 100 100 100 100 100 100 100 100 100 100 100 97 100 100 100 100 100 100 100 94 71 23 32 35 68 87 81 84 84 84 74
77 77 94 94 94 94 94 97 97 97 97 100 100 100 100 100 100 100 100 100 100 100 100 100 97 97 97 100 97 100 100 94 52 10 26 52 94 94 87 87 84 81 68
71 81 84 84 94 94 94 94 94 94 94 97 97 97 97 97 100 100 100 100 100 100 97 97 97 97 100 100 97 94 87 87 58 45 19 58 84 94 90 84 77 71 71
74 77 74 74 87 90 90 90 90 90 90 94 94 97 97 97 97 97 97 97 97 94 97 97 97 100 100 100 97 94 87 77 39 35 35 74 97 94 90 81 77 71 77
81 84 81 77 84 77 84 87 90 90 90 90 90 90 94 97 94 97 90 97 94 90 90 94 97 97 94 97 94 90 77 71 29 39 58 87 97 90 84 81 77 77 74
81 81 81 87 84 81 77 81 81 87 90 90 90 90 94 97 97 90 90 90 90 90 90 94 90 87 87 77 81 74 61 55 29 45 71 87 87 84 77 81 77 77 65
74 74 77 74 81 77 84 84 84 87 84 87 90 90 90 94 94 94 87 94 90 90 87 87 81 65 68 77 71 61 52 39 39 39 65 77 81 84 81 77 71 71 68
68 71 71 74 77 81 81 84 84 87 87 87 87 81 84 87 90 90 90 87 87 87 84 77 81 68 68 58 61 52 39 42 45 35 84 81 74 81 77 68 65 61 61
61 68 68 71 74 77 81 77 74 77 71 71 74 77 81 77 81 77 87 87 84 87 84 77 74 71 71 52 58 42 32 29 39 42 55 68 68 84 77 74 68 55 58
58 61 61 71 68 71 68 71 71 68 65 68 61 58 65 68 71 74 77 77 77 84 81 77 68 71 71 65 52 42 35 39 42 48 42 61 61 68 65 68 52 48 58
52 52 55 55 61 65 65 68 65 61 55 55 55 52 48 58 65 68 74 65 65 71 74 77 65 68 71 65 55 52 52 52 42 52 52 55 61 48 58 48 45 45 45
39 48 48 45 48 45 55 61 55 48 52 55 48 45 42 52 52 58 58 61 55 61 65 74 58 48 61 55 55 52 42 55 42 42 48 48 52 35 42 35 35 32 35
39 42 45 48 48 45 42 45 52 45 45 39 39 39 39 39 39 42 45 52 55 55 55 52 52 48 45 55 48 48 32 35 35 32 26 19 26 35 26 29 26 32 32
29 35 42 45 42 45 45 42 39 42 45 39 45 35 32 35 35 35 39 42 42 42 39 35 42 45 45 45 16 23 23 29 32 23 26 19 26 23 16 16 26 23 29
29 32 29 39 39 45 42 42 35 32 32 32 23 19 26 26 29 32 35 39 32 32 35 32 35 32 29 35 29 19 10 6 13 13 16 16 13 13 13 16 23 23 16
26 23 23 23 32 32 32 35 35 32 29 26 23 16 13 16 23 26 32 26 19 26 26 29 32 32 23 16 16 13 6 3 3 6 10 13 10 10 10 10 13 19 13
16 16 23 26 16 16 32 32 32 29 26 19 23 13 6 10 13 13 13 13 16 19 26 29 32 26 13 16 10 13 3 0 6 6 6 6 6 6 13 10 13 13 13
6 13 16 16 16 16 16 29 29 32 29 23 23 6 6 6 6 10 6 10 13 13 19 16 16 23 13 13 10 16 16 13 0 6 6 0 3 3 3 3 10 10 13
6 6 10 13 13 13 13 16 19 26 19 10 6 6 6 6 6 3 3 3 10 10 10 10 10 13 16 13 13 13 6 3 3 0 0 0 0 0 0 3 3 6 13
6 6 6 10 10 6 6 16 16 13 6 6 6 6 6 6 0 3 3 3 6 10 6 6 10 6 13 10 13 13 6 3 3 3 3 0 0 0 0 0 3 3 0

GEFSSE_con_cape1000_132.txt.gz
Probability
77 87 97 97 97 97 97 97 97 97 97 97 97 100 100 100 100 100 100 100 100 100 100 100 100 100 100 100 97 100 100 100 100 100 100 97 94 90 94 90 90 81 90
81 90 97 97 97 97 97 97 97 97 97 97 97 100 100 100 100 100 100 100 100 100 100 97 100 100 100 100 100 97 100 100 100 100 90 87 84 87 90 94 90 84 90
84 94 97 97 97 97 97 97 97 97 100 97 100 100 100 100 100 100 100 100 100 100 97 100 97 100 100 100 100 100 97 100 97 97 90 55 58 84 84 94 94 94 84
90 100 97 100 97 97 97 97 100 100 97 100 100 97 100 100 100 100 100 100 100 97 97 100 100 100 100 100 100 100 97 94 94 97 84 55 45 74 77 84 87 87 87
94 100 100 100 100 100 100 100 100 100 100 100 100 100 100 100 100 100 100 100 100 97 97 97 100 100 100 100 97 97 97 97 100 97 77 65 58 77 77 74 74 74 84
90 97 100 100 100 100 100 100 100 100 100 100 100 100 100 100 100 100 100 97 100 100 100 97 97 100 100 100 100 97 100 100 97 90 71 61 55 81 84 74 74 81 77
94 97 97 100 100 97 100 100 100 100 100 97 97 100 100 100 100 100 100 94 97 97 97 97 97 97 100 100 100 100 100 100 100 71 48 65 84 94 87 81 74 74 74
94 90 94 94 97 94 94 94 94 97 97 97 97 94 97 100 100 100 100 97 97 97 100 100 100 100 100 97 97 100 100 97 94 77 68 65 90 94 84 84 81 74 65
87 90 94 94 94 94 94 94 94 94 94 94 97 97 94 94 97 97 97 97 97 94 97 97 97 100 100 97 97 97 97 97 87 74 58 68 90 90 81 74 74 71 65
77 71 68 81 90 90 94 94 94 94 94 94 94 94 94 97 97 97 97 97 97 90 94 94 94 94 94 97 97 94 100 97 58 48 58 74 97 94 81 74 71 68 65
81 71 65 65 77 77 84 84 94 90 90 90 90 90 90 94 97 94 94 97 94 90 94 90 87 87 90 97 97 97 94 58 32 45 52 90 97 90 81 77 74 77 71
71 68 81 81 77 77 77 87 90 87 94 94 97 97 97 94 94 87 84 90 87 87 87 87 90 87 84 81 90 90 71 58 29 26 58 84 87 81 77 84 74 71 61
71 74 74 77 81 77 77 77 90 90 97 90 87 87 90 90 87 84 87 87 87 81 84 90 90 74 71 68 65 61 55 48 26 39 65 84 81 77 77 77 71 65 65
68 71 77 77 84 87 81 84 87 90 90 77 81 81 87 90 90 87 87 87 84 84 84 81 81 77 71 71 71 58 39 29 45 55 58 71 77 81 74 74 68 68 71
65 61 65 65 77 84 87 81 77 81 77 84 84 77 81 87 87 81 81 77 81 84 81 77 74 74 68 65 55 45 42 45 48 42 55 68 68 74 74 68 68 71 61
58 58 58 55 71 81 84 81 81 81 81 81 71 68 71 81 74 74 74 77 74 81 74 74 74 68 71 68 58 58 52 52 55 61 55 61 65 68 68 58 58 55 48
52 58 65 65 61 68 71 77 71 71 71 71 65 61 52 58 71 68 65 65 61 58 61 61 58 65 55 52 48 52 45 42 58 55 52 39 45 61 61 55 52 52 45
48 55 55 52 58 68 71 74 74 68 68 61 58 58 52 55 58 65 55 55 61 55 55 58 45 45 52 45 42 39 42 42 39 45 42 42 39 29 45 48 45 45 45
55 55 52 52 55 55 58 61 65 68 61 55 58 52 48 48 52 48 61 55 55 61 58 39 35 32 32 39 29 32 29 32 29 26 32 39 29 35 29 29 32 32 32
42 48 52 52 48 52 55 61 58 55 48 45 45 48 42 45 42 48 45 42 45 39 35 32 26 23 23 19 6 13 23 19 26 19 16 16 26 29 23 23 26 23 29
42 42 39 45 45 48 45 55 52 39 42 42 35 35 35 35 35 39 39 42 39 35 26 26 16 16 13 10 6 6 10 10 13 13 13 13 13 16 13 19 13 10 10
32 35 39 39 39 39 48 42 42 39 35 35 35 32 32 29 32 23 29 29 32 26 23 19 19 16 10 6 6 3 6 6 6 10 10 13 13 10 10 13 16 13 6
29 26 29 29 29 29 29 35 35 35 35 35 35 32 23 23 23 26 19 19 19 23 23 19 16 10 3 6 6 3 3 3 10 10 10 10 10 10 6 6 6 10 13
16 19 19 23 23 26 26 26 29 35 32 32 32 29 26 19 13 10 13 13 16 16 19 13 13 13 6 6 3 6 6 6 6 6 6 6 3 6 6 6 3 3 3
10 10 13 16 16 19 23 26 23 19 23 26 23 23 23 19 13 10 10 13 13 13 10 16 16 13 10 6 6 6 6 6 6 6 3 3 3 3 3 3 3 0 0
0 0 6 10 13 19 19 19 19 19 19 19 19 16 16 13 10 13 10 13 13 10 10 10 13 16 13 10 6 6 6 6 3 6 3 3 3 3 3 3 3 0 0

GEFSSE_con_cape1000_138.txt.gz
Probability
90 97 97 97 97 97 97 97 97 97 97 97 100 100 100 100 100 100 100 100 100 100 100 100 100 100 100 100 100 100 100 100 97 97 97 97 97 97 97 97 90 87 90
90 97 97 97 97 97 97 97 97 100 100 97 100 100 100 100 100 100 100 100 100 100 100 100 100 100 100 100 100 100 100 100 100 97 97 97 97 94 94 94 90 94 94
97 97 97 97 97 97 97 97 97 100 100 97 100 100 100 100 100 100 100 100 100 100 100 100 100 100 100 100 100 100 100 97 97 97 90 81 90 97 94 94 97 94 94
97 94 97 97 97 97 97 97 100 100 100 100 100 100 100 100 100 100 100 100 100 100 100 100 100 100 100 100 100 100 100 97 94 84 48 71 81 94 94 90 90 90 90
94 97 97 97 97 97 97 100 100 100 100 100 100 100 100 100 100 100 100 100 100 100 100 97 97 100 100 100 97 100 100 97 90 71 48 42 68 94 94 94 94 90 90
94 100 100 100 100 100 100 100 100 100 100 100 100 100 100 100 100 100 100 97 100 100 100 97 97 97 100 100 100 100 97 94 81 58 45 39 65 90 94 87 90 90 87
90 97 100 100 100 100 100 100 100 100 100 100 100 100 100 100 100 100 100 100 100 100 100 100 100 100 100 100 100 100 97 97 65 39 26 29 61 94 87 87 87 87 87
87 90 90 97 97 97 100 97 97 97 97 97 97 97 97 100 100 97 97 97 97 97 97 97 97 100 100 100 97 97 100 94 71 48 26 26 68 87 87 87 90 90 90
84 84 87 90 90 90 94 94 94 94 94 94 94 94 97 97 97 94 94 94 90 97 97 97 97 94 94 97 100 100 100 94 42 35 32 29 81 87 84 90 87 87 84
71 77 81 81 84 87 90 94 94 94 94 94 94 97 97 90 90 94 94 94 94 94 97 97 97 94 97 97 97 90 97 81 29 23 6 35 87 81 84 77 87 87 81
58 61 71 74 74 81 84 87 87 90 90 87 87 87 87 84 84 84 90 94 94 94 90 87 94 97 94 94 90 94 81 39 19 10 3 52 84 84 81 84 81 81 77
35 48 48 55 61 65 77 77 77 74 68 68 68 81 74 74 74 84 87 87 94 90 87 87 84 87 87 68 58 71 48 32 16 6 3 71 81 77 81 84 81 74 71
32 35 45 45 52 58 58 58 58 58 68 68 65 61 55 55 55 58 58 68 71 74 68 71 74 71 65 52 29 32 35 26 10 3 6 65 68 65 68 71 74 68 65
29 32 35 39 45 45 48 52 55 55 58 61 61 58 48 39 39 35 35 48 55 52 45 45 45 55 42 26 6 3 6 6 3 0 6 58 65 65 61 68 65 68 61
35 32 35 32 35 42 42 42 48 45 45 39 39 42 35 32 26 26 29 35 32 26 23 23 26 23 19 10 6 3 3 0 0 0 3 52 61 58 58 55 58 58 58
23 29 32 39 39 42 39 42 39 39 42 35 32 35 29 23 19 16 23 26 16 19 19 16 19 13 13 6 3 6 3 3 0 0 3 26 52 55 55 55 58 52 52
23 23 29 32 35 32 32 35 35 32 32 26 26 26 26 19 13 13 13 10 16 13 6 0 3 3 3 3 3 0 0 0 0 0 3 3 10 42 45 45 48 55 52
23 26 19 26 26 26 26 26 32 26 23 23 23 26 26 19 19 16 13 10 13 10 6 3 0 3 3 3 0 0 0 0 3 0 0 3 6 6 32 39 42 45 48
13 13 16 16 13 19 19 19 19 23 19 29 23 26 26 23 23 19 19 13 13 6 3 3 0 0 0 0 0 0 0 0 0 0 0 0 0 3 6 10 29 39 35
10 10 10 13 13 10 13 19 19 23 19 23 19 16 23 29 19 26 16 13 13 10 3 3 0 0 0 0 0 0 0 0 0 0 0 0 0 0 0 3 6 16 19
10 10 13 10 13 13 13 26 19 19 19 16 19 19 13 16 16 13 16 13 13 6 6 6 3 3 0 0 0 0 0 0 0 0 0 0 0 0 0 0 3 3 6
13 16 13 13 13 16 13 13 19 19 16 13 10 10 13 13 13 13 10 6 6 3 6 6 3 3 3 3 0 0 0 0 0 0 0 0 0 0 0 0 0 0 0
6 10 6 6 10 10 13 13 13 13 13 10 10 10 13 10 10 10 6 6 6 3 3 0 3 3 3 3 0 0 0 0 0 0 0 0 0 0 0 0 0 0 0
3 3 6 6 6 6 10 16 16 13 13 13 10 10 10 10 10 10 6 6 6 3 0 0 0 0 0 3 0 0 0 0 0 0 0 0 0 0 0 0 0 0 0
3 3 3 3 3 3 10 16 16 13 13 6 6 6 6 6 6 6 3 3 3 3 3 0 0 0 0 0 0 0 0 0 0 0 0 0 0 0 0 0 0 0 0
0 0 0 3 0 0 0 3 3 10 13 10 6 3 3 3 3 3 3 3 3 3 3 3 0 0 0 0 0 0 0 0 0 0 0 0 0 0 0 0 0 0 0

GEFSSE_con_cape1000_144.txt.gz
Probability
65 84 97 97 97 100 100 97 100 100 100 100 100 100 100 100 100 100 100 100 100 100 100 97 100 100 100 100 100 100 100 100 100 100 100 100 97 94 87 94 94 90 90
68 84 97 97 97 100 100 100 100 100 100 100 100 100 100 100 100 100 100 100 100 100 100 100 97 97 97 97 97 100 100 100 100 100 100 97 97 97 90 90 90 90 94
81 84 94 97 100 100 100 100 100 100 100 100 100 100 100 100 100 100 100 100 100 100 100 100 100 100 100 100 100 100 100 100 100 97 94 90 90 97 94 90 94 94 94
84 87 87 97 100 100 100 100 100 100 100 100 100 100 100 100 100 100 100 100 100 100 97 97 100 100 100 100 100 100 100 100 100 90 84 84 87 97 97 90 90 94 94
81 87 87 97 97 100 100 100 100 100 100 100 100 100 100 100 100 100 100 100 100 100 97 97 97 97 97 97 100 100 97 97 97 68 58 65 81 97 94 94 94 90 90
84 87 94 100 100 100 100 100 100 100 100 100 100 100 100 100 100 100 100 97 97 100 100 100 100 100 100 100 97 97 94 90 87 58 58 65 77 90 97 97 94 97 97
77 84 94 100 100 100 100 100 97 97 97 97 97 100 100 97 97 97 97 97 97 97 97 97 97 97 97 97 94 90 94 87 52 61 58 71 71 90 94 87 94 90 90
77 77 87 97 97 100 97 94 94 94 94 94 94 97 97 97 97 97 97 97 97 97 97 97 97 97 97 97 97 90 94 81 71 48 61 65 68 84 94 90 87 90 81
65 74 74 81 87 94 97 97 97 97 97 97 97 97 97 97 97 94 94 94 94 97 94 94 97 97 97 97 97 94 94 94 42 61 45 58 74 84 90 90 94 84 81
61 65 65 65 68 81 87 94 94 94 94 94 94 94 90 90 87 90 90 94 94 94 94 94 94 94 94 94 97 94 94 84 35 32 42 42 81 87 87 90 87 87 77
48 55 58 65 68 77 81 87 87 87 87 81 81 87 84 84 84 84 81 84 90 90 90 94 94 94 90 90 87 90 77 45 26 23 26 45 84 87 87 90 87 84 81
42 45 48 58 58 68 71 58 58 61 68 68 68 68 65 58 58 74 74 81 84 87 81 81 81 84 77 65 61 68 55 42 23 19 13 55 84 84 90 87 84 81 74
23 26 35 42 45 48 52 58 58 58 58 58 58 52 48 48 48 52 48 52 68 71 65 68 65 61 65 58 55 42 23 32 26 26 23 65 87 87 84 81 87 74 71
23 23 26 35 39 45 48 48 48 48 52 55 48 48 42 29 23 29 29 29 35 39 45 48 45 45 42 48 35 29 13 13 16 19 26 61 84 87 81 81 77 74 71
19 23 26 23 29 35 39 39 39 39 45 39 35 39 29 19 23 19 16 19 23 19 19 23 29 29 26 23 16 13 13 10 3 6 19 48 71 71 68 65 58 65 58
13 10 16 13 23 32 32 32 23 23 29 29 29 23 19 16 19 19 13 16 16 16 16 19 13 16 10 10 10 16 10 6 10 3 3 13 35 52 65 58 58 55 48
3 6 3 6 16 23 26 26 23 19 23 26 26 19 23 19 16 10 10 6 13 13 13 6 3 6 10 13 6 6 3 6 6 3 3 3 10 23 39 52 55 52 48
6 3 0 10 10 13 19 13 16 19 19 16 19 16 19 23 16 10 6 10 13 6 6 3 3 3 3 6 3 3 3 3 3 0 0 3 6 6 16 26 29 45 42
3 3 0 3 6 6 6 10 10 6 10 10 10 10 16 16 16 10 10 6 6 6 6 3 3 3 3 3 3 3 3 3 3 0 3 3 3 6 10 6 26 19 29
6 6 3 6 3 3 0 6 6 6 3 6 3 3 6 6 16 10 6 6 6 3 3 0 0 0 0 0 0 0 0 0 0 0 0 0 3 3 3 3 10 6 10
3 6 3 3 3 3 3 3 10 10 6 3 3 6 6 6 6 10 10 3 3 6 3 3 3 0 0 0 0 0 0 0 0 0 0 0 0 3 3 3 6 3 3
3 3 0 3 3 3 0 3 3 3 6 3 3 6 6 6 6 10 10 6 3 3 0 0 0 3 3 0 3 3 3 0 0 0 0 0 0 0 3 3 3 3 3
6 3 6 3 0 3 3 3 10 6 6 6 6 6 6 6 10 10 10 6 3 3 3 0 0 0 0 0 0 3 3 0 0 0 0 0 0 0 0 0 0 0 0
3 3 3 3 3 0 0 0 6 6 6 6 3 3 6 6 10 6 6 6 3 3 3 0 0 0 0 0 0 0 0 0 0 0 0 0 0 0 0 0 0 0 0
3 3 3 3 3 3 3 3 6 6 6 0 0 6 3 0 0 0 3 3 3 3 3 3 0 0 0 0 0 0 0 0 0 0 0 0 0 0 0 0 3 0 0
3 3 3 3 3 3 3 3 3 6 3 0 0 0 0 0 0 0 0 0 0 0 0 0 0 0 0 0 0 0 0 0 0 0 0 0 0 0 0 0 0 0 0

GEFSSE_con_cape1000_150.txt.gz
Probability
29 52 97 94 100 97 97 97 97 97 97 97 97 97 100 100 100 100 100 100 100 100 97 97 97 97 97 100 100 100 100 100 100 97 97 94 97 94 97 94 87 84 97
32 58 97 94 100 100 97 97 97 97 97 97 100 100 100 100 100 100 100 100 100 100 100 97 94 94 97 97 97 97 100 100 100 97 90 87 90 97 97 84 90 94 100
61 71 84 97 100 100 100 100 100 100 100 100 100 100 100 100 100 100 100 100 100 100 100 97 97 100 100 100 97 100 100 97 94 97 94 68 84 90 87 90 100 97 97
77 74 77 97 100 100 100 100 100 100 100 100 100 100 100 100 100 100 100 100 100 100 100 100 100 100 100 100 100 100 100 97 97 87 58 35 55 87 94 90 94 94 94
87 87 97 97 100 100 100 100 100 100 100 100 100 100 100 100 97 97 97 97 97 97 94 94 97 97 97 100 100 97 94 94 90 74 32 32 68 90 94 90 90 87 94
81 77 84 94 97 97 100 100 100 100 100 100 100 97 97 97 97 97 94 97 97 97 97 97 97 97 97 94 94 94 94 90 81 26 19 32 48 94 90 90 97 90 94
74 74 77 97 100 100 100 94 94 94 94 97 97 97 97 97 97 97 97 94 97 97 94 97 97 97 94 94 90 90 87 87 61 23 19 23 58 90 87 90 87 84 84
68 68 81 97 94 97 97 97 97 97 97 94 94 94 94 97 94 94 97 97 97 94 94 97 97 94 90 90 94 94 90 87 48 32 39 45 90 97 94 97 100 94 87
68 74 74 71 90 94 94 94 90 94 94 94 90 90 90 90 87 90 90 90 90 90 94 94 94 94 97 97 90 90 94 81 68 58 48 65 84 87 94 100 100 94 84
71 81 68 77 74 81 87 90 90 87 87 87 87 87 87 84 87 87 87 87 90 90 90 87 87 87 84 87 84 81 84 77 48 45 55 68 84 87 97 97 94 87 74
74 74 71 74 81 81 74 87 87 87 84 84 84 81 84 84 81 84 81 84 84 84 87 87 87 87 84 81 77 84 84 55 35 42 58 77 84 87 94 97 97 84 77
71 71 77 81 84 84 77 90 87 87 87 87 87 87 87 87 81 74 74 74 74 77 81 77 74 68 71 71 71 71 55 42 32 32 52 74 71 81 81 90 87 84 81
68 71 68 77 77 77 77 74 81 84 84 74 77 84 87 84 74 71 74 71 71 71 71 71 68 61 68 68 74 58 48 35 35 32 42 77 71 74 77 84 84 81 81
55 58 65 68 77 71 68 68 74 71 74 74 74 68 71 65 74 71 71 65 68 71 71 74 71 45 48 35 48 42 35 48 48 45 68 77 77 81 74 71 74 65 77
48 45 52 52 55 65 71 65 65 68 65 65 65 68 65 58 58 58 61 65 58 58 48 55 45 42 45 26 29 23 29 42 42 29 39 71 74 74 68 68 52 52 58
42 39 39 39 45 55 55 68 65 61 61 58 58 55 55 48 55 48 48 55 45 45 52 52 42 42 39 35 32 26 29 35 39 45 42 58 68 65 61 65 61 55 55
42 45 42 42 48 48 48 52 48 55 58 55 52 55 55 48 52 48 39 39 39 42 48 48 39 35 39 29 26 32 29 35 29 45 45 48 52 39 48 52 52 52 48
45 42 39 29 42 48 39 42 48 45 45 42 42 39 35 29 32 39 32 35 39 35 35 29 29 29 29 35 32 29 29 39 35 32 35 32 39 29 39 39 35 39 35
32 35 35 35 32 42 39 45 42 39 26 23 26 26 29 29 32 39 42 42 39 32 26 23 26 32 26 35 26 42 29 26 29 10 19 19 19 32 32 32 26 26 32
23 19 26 26 29 35 32 29 35 32 29 26 26 26 29 29 26 26 23 29 26 29 35 39 35 35 32 32 16 13 26 23 23 29 16 13 26 26 26 26 32 29 16
19 19 29 26 29 32 23 19 23 26 26 26 26 23 23 23 23 23 26 26 23 26 26 32 32 29 32 23 23 26 23 23 26 42 26 19 16 19 23 29 29 35 26
16 19 19 19 19 23 26 26 23 19 19 16 16 16 16 19 23 23 26 23 23 23 23 16 23 26 23 23 23 26 16 16 29 10 10 19 13 16 19 10 23 23 16
16 16 16 19 19 23 26 23 23 19 16 19 19 19 16 16 16 23 26 23 26 23 16 16 16 16 23 16 23 23 13 3 10 6 10 6 6 13 13 19 13 16 16
13 19 19 16 16 23 23 16 16 19 23 19 16 16 13 10 13 16 19 16 19 23 16 16 10 10 10 13 13 16 16 13 3 0 0 0 0 6 3 3 6 13 13
16 13 13 13 13 13 16 16 19 16 16 16 16 16 13 10 10 10 10 16 16 19 19 10 10 10 10 13 13 10 6 16 3 3 0 3 0 0 0 6 10 13 10
13 13 13 10 10 10 10 10 13 13 16 16 13 16 10 10 13 10 10 13 13 13 6 6 6 6 6 6 6 6 10 6 3 3 3 6 6 3 3 3 3 3 3

GEFSSE_con_cape1000_156.txt.gz
Probability
65 87 97 97 97 100 97 97 97 97 97 97 97 97 100 100 100 100 100 100 100 100 97 94 97 97 97 97 94 97 97 97 97 90 90 94 97 97 94 97 100 90 100
81 94 97 100 97 97 97 97 97 97 97 97 97 97 100 100 100 100 100 100 100 100 97 97 94 97 90 90 87 97 90 90 87 87 87 90 90 87 87 100 100 100 100
71 84 94 97 100 97 97 97 97 97 97 97 97 100 100 100 100 100 100 100 100 94 90 94 90 90 94 94 94 90 84 81 81 84 90 74 81 87 94 100 100 100 97
71 87 87 97 97 100 100 100 97 97 97 97 100 100 100 100 100 100 97 100 90 90 87 87 90 87 90 90 84 84 81 71 84 97 87 71 74 90 90 90 94 90 90
84 90 97 97 97 97 97 97 97 94 97 100 100 97 90 90 90 90 90 90 87 87 87 84 90 90 87 87 77 74 84 90 90 94 84 68 84 94 90 81 81 81 94
77 81 94 94 97 94 94 94 94 94 97 97 94 94 94 94 90 90 87 87 87 87 84 84 87 84 81 84 77 77 81 81 84 68 71 61 87 97 90 84 74 74 77
68 71 84 97 97 97 97 94 97 97 97 97 94 94 94 94 90 90 90 90 90 87 77 84 84 81 87 77 74 81 87 87 84 55 55 58 87 94 94 90 84 81 77
61 65 81 94 94 97 97 97 97 94 94 94 94 90 87 87 87 90 90 87 90 81 84 81 87 81 81 84 81 81 84 90 77 55 61 74 90 94 90 87 87 71 74
68 65 65 77 94 94 94 94 94 94 94 87 87 87 87 87 87 84 84 84 84 77 77 74 77 81 84 81 84 84 97 97 94 55 55 77 97 97 84 87 84 84 77
74 65 58 61 81 90 84 90 90 90 87 87 87 87 84 87 84 84 84 84 81 81 71 74 81 84 84 84 87 87 90 94 65 32 35 77 100 94 97 90 87 77 77
77 71 58 65 74 74 74 77 87 84 84 87 87 81 90 87 87 90 84 84 87 87 87 87 87 90 90 90 94 94 90 68 29 29 52 84 94 94 90 84 84 84 74
77 68 71 71 68 61 58 87 90 77 81 84 81 90 87 90 90 84 77 77 81 81 84 81 81 87 81 74 87 94 77 48 32 39 52 74 87 81 74 74 77 74 68
65 71 68 71 77 77 81 77 81 81 87 77 77 84 87 90 90 87 87 90 90 81 84 87 84 68 61 71 77 77 48 35 26 29 48 74 81 74 74 71 68 71 74
58 55 58 61 71 68 71 74 74 74 77 71 74 74 84 84 77 74 77 74 74 74 77 77 71 71 65 48 42 48 45 39 32 35 45 65 74 68 65 68 68 74 68
52 58 65 68 71 65 68 71 68 77 61 71 68 61 61 61 61 61 71 68 68 68 68 71 68 65 65 48 42 39 35 32 29 29 29 52 74 68 68 65 71 71 65
52 52 52 55 68 65 68 71 68 58 65 61 58 58 61 61 65 65 58 58 61 61 61 58 58 61 58 52 48 42 45 42 32 42 32 48 52 65 68 68 68 65 65
55 55 58 61 61 61 61 58 45 48 48 42 39 39 45 52 61 61 58 58 65 61 58 58 61 55 58 55 58 52 48 48 35 29 42 45 42 48 55 52 55 52 48
48 52 52 48 55 58 55 58 45 42 39 39 39 39 32 32 42 45 55 52 48 55 55 55 55 55 48 39 39 42 42 45 45 39 35 29 29 29 39 45 48 52 45
52 52 52 52 52 52 52 48 39 39 32 29 35 32 29 29 29 32 39 39 42 42 42 32 39 39 26 23 26 23 29 29 29 26 29 26 26 32 29 39 45 48 48
48 45 45 48 52 48 39 39 39 35 29 23 23 26 26 26 23 29 29 26 26 29 32 35 35 39 29 26 10 13 26 16 29 32 23 32 32 32 26 29 39 35 39
42 42 42 39 45 48 45 32 26 19 19 23 23 19 23 23 26 29 23 26 19 23 26 26 26 23 23 23 23 19 19 16 19 35 35 32 32 29 23 23 23 35 32
32 29 39 39 39 35 39 32 32 23 19 16 13 19 16 19 23 19 26 19 19 23 23 19 16 16 13 16 26 13 13 16 19 16 23 32 26 23 16 13 19 29 16
29 29 23 26 29 32 39 29 29 23 19 19 23 16 13 13 16 16 26 19 19 16 16 16 10 10 10 19 16 16 10 6 10 13 29 29 19 16 16 13 16 19 16
29 26 26 26 26 29 26 29 26 19 19 16 16 19 16 16 13 13 13 16 16 16 13 13 10 13 13 10 13 13 10 10 3 6 10 10 16 13 10 0 3 13 10
23 26 26 26 26 26 26 26 23 23 19 19 13 16 19 16 13 13 13 10 10 19 19 13 13 10 10 10 13 10 10 10 10 6 3 3 3 10 6 6 6 3 0
19 19 23 23 26 26 26 26 26 26 19 13 13 16 13 13 13 10 6 10 16 16 13 19 16 13 10 10 10 10 10 6 6 6 3 3 3 3 6 3 3 0 3

GEFSSE_con_cape1000_162.txt.gz
Probability
87 94 100 94 94 94 97 97 97 97 97 100 100 100 100 100 100 100 100 100 100 100 100 100 100 100 100 100 94 94 100 100 97 97 97 100 100 100 100 100 97 90 100
87 94 100 100 94 97 97 97 97 97 100 100 100 100 100 100 100 100 100 100 100 100 100 100 97 100 97 94 90 84 87 94 94 97 97 97 100 100 100 100 97 94 100
87 87 94 100 97 97 97 100 100 100 100 100 100 100 100 100 100 100 100 97 97 97 97 94 87 90 90 81 84 77 77 84 87 90 87 74 94 100 97 97 94 97 100
87 87 94 100 100 97 97 100 100 100 100 100 100 100 97 97 97 97 97 97 94 94 97 90 84 84 87 81 77 77 74 81 84 87 55 65 84 97 100 100 97 97 97
87 90 94 97 97 97 100 100 100 100 100 97 97 97 97 97 97 97 90 90 90 90 94 81 84 81 84 81 84 74 81 87 87 77 42 45 55 94 97 97 97 94 97
84 90 94 100 100 100 100 100 97 97 97 97 97 97 97 97 97 97 97 87 87 87 84 84 81 81 81 81 77 77 81 77 61 35 23 32 52 90 97 90 94 97 97
81 81 90 100 100 100 100 97 97 97 97 97 97 94 94 90 90 90 90 94 94 94 87 81 81 77 71 71 81 81 87 84 52 23 19 23 52 87 94 97 94 90 94
77 81 90 97 97 97 94 90 90 94 94 90 94 94 90 90 90 90 90 84 84 81 81 84 84 84 81 84 71 71 84 90 61 26 10 13 55 87 94 90 97 94 87
71 77 81 77 84 87 87 90 90 90 90 90 90 90 90 90 87 81 81 81 87 84 81 81 81 87 84 81 87 90 87 87 42 29 13 10 65 87 87 87 90 90 87
55 65 61 61 65 74 84 84 90 87 90 84 87 90 90 87 84 84 84 87 87 84 81 84 87 87 84 87 90 87 87 71 35 16 10 19 84 87 90 81 77 84 81
48 52 55 55 58 65 68 81 77 81 81 77 77 81 77 68 71 81 87 87 87 87 84 81 87 81 81 77 81 84 74 45 16 13 3 39 90 77 77 81 81 84 90
29 32 42 45 55 52 61 61 61 68 68 68 65 68 58 48 39 55 68 81 77 77 77 77 77 74 74 55 52 71 55 26 10 0 6 71 84 65 65 77 74 81 84
29 35 32 39 39 52 48 52 55 52 52 45 52 48 45 45 29 29 35 39 48 52 45 52 55 45 35 26 16 16 10 19 10 3 10 74 68 68 68 74 68 68 71
29 29 29 32 32 35 39 45 45 42 35 39 39 32 29 23 19 16 23 23 26 32 29 29 29 29 26 13 13 10 13 6 6 3 0 55 61 58 55 65 71 71 65
35 35 35 26 26 29 23 26 32 29 26 19 16 16 16 13 19 13 13 16 16 16 19 16 10 16 13 10 13 13 13 10 3 3 3 32 42 48 48 58 68 65 68
39 39 29 23 23 26 23 23 16 19 16 13 10 13 13 10 10 10 6 6 10 13 13 10 10 10 6 3 3 6 3 6 3 3 3 10 32 35 39 39 52 48 48
32 32 35 29 23 19 19 19 19 19 16 13 13 16 6 6 6 6 6 6 3 3 6 6 10 3 0 0 0 0 0 0 0 0 3 0 6 26 39 42 48 52 48
29 26 29 32 23 19 19 13 13 10 3 6 3 6 3 6 6 3 3 3 3 3 3 3 0 0 0 3 0 0 0 0 0 0 0 0 3 0 16 39 39 45 48
29 29 26 23 23 16 16 13 10 3 0 3 3 0 0 6 3 0 3 3 3 3 3 0 0 0 0 0 0 0 0 0 0 0 0 0 0 0 0 3 32 35 42
23 26 16 13 13 13 6 3 3 6 3 3 0 0 0 3 3 0 0 0 3 0 0 0 0 0 0 0 0 0 0 0 0 0 0 0 0 0 0 0 3 6 35
16 10 10 13 10 10 6 3 3 3 3 3 0 0 0 0 3 0 0 0 0 0 0 0 0 0 0 0 0 0 0 0 0 0 0 0 0 0 0 0 3 6 6
16 13 10 10 10 10 10 3 3 3 3 3 0 0 0 0 0 3 0 0 0 0 0 0 0 0 0 0 0 0 0 0 0 0 0 0 0 0 0 3 3 3 3
19 16 13 6 6 6 6 3 3 3 3 3 0 0 0 0 0 0 6 0 0 0 0 0 0 0 0 0 0 0 0 0 0 0 0 0 0 0 0 3 3 3 3
13 16 16 13 6 6 6 6 3 3 3 3 3 0 0 3 3 3 6 3 0 0 0 0 0 0 0 0 0 0 0 0 0 0 0 0 0 0 0 0 0 0 0
16 13 16 16 10 6 6 6 6 3 0 0 0 3 3 3 3 3 3 3 0 0 0 0 0 0 0 0 0 0 0 0 0 0 0 0 0 0 0 0 0 0 0
16 13 13 13 16 13 13 10 6 3 3 0 0 0 0 0 0 0 3 0 0 0 0 0 0 0 0 0 0 0 0 0 0 0 0 0 0 0 0 0 0 0 0

GEFSSE_con_cape1000_168.txt.gz
Probability
55 87 100 97 97 97 97 97 100 100 100 100 100 100 100 100 100 100 100 100 100 100 97 97 97 97 94 94 87 94 97 94 100 100 97 100 97 97 94 90 87 81 90
65 87 97 97 97 97 97 100 100 100 100 100 100 100 100 100 100 100 97 97 97 97 94 94 97 97 87 84 84 84 90 94 94 97 100 97 97 100 94 90 87 81 94
77 87 94 97 97 97 97 100 100 100 100 100 100 100 97 97 97 97 97 97 97 97 87 87 90 87 81 74 74 84 87 90 87 87 94 84 97 97 94 94 90 97 97
84 87 94 97 94 97 97 100 100 100 97 94 97 97 97 97 97 97 97 97 94 90 87 77 81 84 77 74 71 74 84 87 84 81 71 74 81 90 87 94 90 94 94
84 90 94 94 94 94 97 97 97 97 97 97 97 97 97 97 97 97 97 94 90 87 84 74 77 81 81 81 68 74 81 84 84 65 48 61 68 87 87 84 94 94 90
77 84 90 94 94 94 97 97 97 97 97 97 94 94 97 97 97 94 94 90 81 81 77 81 81 77 77 81 71 74 81 87 71 42 52 45 68 87 90 81 81 81 90
77 74 87 94 94 90 90 90 90 94 90 90 90 90 90 90 90 87 90 90 87 87 84 84 81 77 71 81 77 71 77 71 42 35 39 42 61 87 94 87 84 84 84
71 74 84 87 90 94 87 90 90 90 94 94 94 97 97 97 94 90 90 84 81 81 81 77 74 81 74 77 71 65 68 65 45 26 32 39 45 90 87 87 90 97 94
65 61 68 68 77 87 87 87 84 84 84 84 87 87 90 90 90 87 90 87 84 81 74 71 71 74 81 77 77 77 77 71 42 42 32 42 48 90 90 87 84 94 94
58 58 58 58 61 68 74 81 81 84 84 84 84 84 81 81 84 81 84 84 84 84 77 77 87 81 77 74 77 84 81 61 39 29 35 29 55 81 84 87 84 84 87
52 52 52 55 55 58 68 71 68 74 71 71 68 68 71 65 58 61 71 77 77 81 77 77 77 77 77 74 77 71 71 52 32 19 13 23 68 77 77 84 87 81 84
45 48 52 52 55 55 58 61 61 61 61 61 61 61 55 48 42 55 52 68 65 68 65 71 74 74 55 45 48 58 39 29 26 19 16 48 74 84 84 84 81 74 74
42 35 45 45 45 45 45 52 48 48 48 52 48 48 35 29 26 26 32 32 35 45 45 45 48 42 39 35 32 19 19 13 16 19 6 55 71 77 77 77 77 74 77
35 39 39 35 32 39 35 42 42 42 32 39 39 32 23 19 19 19 19 16 23 26 23 23 23 19 26 23 23 16 13 16 10 10 10 39 68 68 65 68 68 65 61
29 32 32 29 29 29 26 35 39 29 29 23 23 23 16 16 10 10 10 10 10 13 13 13 6 10 13 16 16 13 16 13 16 10 10 13 48 52 52 48 48 45 52
29 26 23 29 23 23 26 23 23 26 19 13 10 10 6 3 3 3 6 3 3 3 3 3 3 3 3 3 3 3 3 6 3 6 6 6 13 29 42 45 35 39 42
10 19 19 23 16 16 16 13 16 13 10 10 3 3 3 3 6 3 6 3 3 3 0 0 3 3 3 3 3 6 0 3 3 3 3 3 10 10 29 32 39 35 39
10 10 13 19 13 13 13 6 6 6 6 3 3 3 3 3 3 3 0 0 0 0 0 0 0 3 3 3 3 3 3 3 3 3 3 3 3 3 10 23 32 32 32
3 3 3 10 13 10 10 6 6 6 6 3 3 3 3 3 3 0 0 0 0 0 0 0 0 0 0 0 0 0 0 0 3 3 3 0 0 3 3 3 16 29 32
3 3 6 13 6 3 3 3 3 3 3 3 0 0 3 3 0 0 0 0 0 0 0 0 0 0 0 0 0 0 0 0 0 0 0 0 0 0 0 0 0 3 10
3 0 6 3 3 3 3 3 3 3 3 0 0 0 0 0 3 0 0 0 0 0 0 0 0 0 0 0 0 0 0 0 0 0 0 0 0 0 0 0 0 0 0
6 3 6 0 3 3 3 3 0 0 0 0 0 0 0 0 0 0 0 0 0 0 0 0 0 0 0 0 0 0 0 0 0 0 0 0 0 0 0 0 0 0 0
6 10 3 0 3 3 3 0 0 0 0 0 0 0 0 0 0 0 0 0 0 0 0 0 0 0 0 0 0 0 0 0 0 0 0 0 0 0 0 0 0 0 0
10 3 0 3 3 3 0 0 0 0 0 0 0 0 0 0 0 0 0 0 0 0 0 0 0 0 0 0 0 0 0 0 0 0 0 0 0 0 0 0 0 0 0
3 0 3 3 3 3 0 0 0 0 0 0 0 0 0 0 0 0 0 0 0 0 0 0 0 0 0 0 0 0 0 0 0 0 0 0 0 0 0 0 0 0 0
3 0 6 3 3 3 0 0 0 0 0 0 0 0 0 0 0 0 0 0 0 0 0 0 0 0 0 0 0 0 0 0 0 0 0 0 0 0 0 0 0 0 0

GEFSSE_con_cape1000_174.txt.gz
Probability
26 45 90 94 97 100 100 100 100 100 100 100 100 100 100 97 100 97 97 94 94 94 94 90 97 81 81 84 81 81 90 90 90 87 90 94 97 94 90 84 81 68 87
32 65 87 97 94 100 100 100 100 100 100 100 100 97 97 97 97 97 97 94 94 94 90 94 84 77 74 77 77 77 77 94 94 87 81 77 90 90 84 68 81 84 87
58 68 71 94 97 100 100 100 100 100 100 97 97 97 97 97 97 97 97 94 90 87 84 77 81 71 68 74 74 81 81 87 87 84 77 65 61 84 77 65 81 87 77
68 74 58 94 97 97 100 100 100 97 97 97 97 97 97 97 94 94 94 94 90 84 74 71 65 71 68 71 74 77 77 84 81 84 61 23 26 81 74 81 77 81 81
65 68 90 94 90 90 94 97 97 97 97 97 97 97 97 97 97 90 87 84 84 81 65 65 65 71 74 74 71 74 74 77 81 68 29 16 42 90 87 81 84 71 81
61 65 81 87 87 87 90 94 94 90 97 94 94 94 90 94 94 90 87 84 77 71 68 65 71 74 74 65 68 71 81 84 77 48 39 32 32 84 87 84 68 74 74
58 61 74 87 90 87 87 84 84 87 90 90 87 84 81 90 90 87 87 84 84 77 74 68 65 68 71 65 61 68 65 74 74 39 39 45 48 81 84 77 87 81 77
71 74 74 90 87 84 81 81 84 84 84 87 87 87 84 81 81 81 81 77 81 74 68 68 68 74 68 68 68 68 77 71 35 19 26 42 81 81 84 87 87 90 87
61 65 77 77 84 81 81 81 81 81 81 81 81 81 81 77 74 77 74 74 68 71 74 71 74 74 74 77 77 74 68 71 52 16 13 42 77 71 87 84 90 87 87
68 61 58 68 65 71 74 77 81 81 77 81 77 77 77 77 71 71 71 71 71 58 65 65 65 61 71 74 74 65 68 55 26 19 23 58 74 68 77 87 81 81 84
65 71 52 58 61 55 52 65 71 71 68 71 71 71 74 61 45 61 42 68 65 68 68 68 71 68 68 71 71 65 58 45 26 32 48 71 71 58 74 77 77 77 74
65 65 61 68 61 48 48 68 68 61 68 58 68 68 61 61 55 35 52 65 65 68 65 68 71 65 55 68 68 55 52 42 29 35 45 68 71 71 71 81 77 74 74
61 65 55 55 58 65 65 65 68 65 68 58 65 65 68 65 61 55 58 61 65 58 65 65 58 55 52 42 52 48 35 42 39 32 42 58 52 65 61 71 68 74 68
55 61 58 58 68 68 65 65 68 61 65 52 58 68 58 61 65 58 61 52 58 55 55 52 58 35 29 26 29 16 23 35 32 39 58 48 48 58 58 68 65 61 61
52 65 58 61 71 71 71 68 61 61 58 61 65 65 65 58 58 58 55 55 45 45 45 48 35 35 29 35 32 19 19 26 26 29 42 42 39 32 42 45 48 55 48
61 61 55 55 68 65 65 65 58 55 61 48 58 58 58 58 58 48 45 45 39 42 45 39 32 29 26 29 29 26 19 29 26 35 32 32 42 35 29 32 32 32 35
55 52 48 48 58 58 58 58 55 55 48 42 45 48 52 45 48 42 39 39 35 39 39 39 29 29 35 29 23 13 19 26 26 29 35 35 35 23 29 26 35 35 32
55 52 52 45 55 58 58 58 52 48 48 39 35 35 39 32 35 35 29 32 29 29 26 29 29 26 29 35 26 23 16 29 19 26 23 26 32 26 26 29 29 23 26
58 55 48 48 52 55 55 48 48 42 42 32 32 29 26 26 23 26 23 23 26 26 26 26 19 23 23 23 19 19 10 10 13 10 13 19 23 26 23 26 23 23 19
58 58 55 55 48 45 42 42 45 39 26 19 16 16 19 16 19 19 19 19 16 26 23 26 26 26 23 26 6 3 10 6 10 13 13 16 19 16 16 16 23 19 10
55 52 52 52 52 42 39 39 35 26 19 13 13 13 10 10 13 16 16 16 16 19 16 16 19 19 23 19 19 13 10 6 10 10 13 10 10 10 13 13 19 19 16
45 52 52 48 39 39 32 35 29 23 13 10 13 13 10 13 13 10 13 16 16 19 16 16 16 16 16 13 16 16 3 6 13 0 6 6 6 3 3 6 13 13 13
42 45 35 39 39 32 29 26 16 19 6 13 16 16 16 10 10 10 10 10 16 13 16 16 16 16 13 13 13 10 6 0 10 3 3 3 6 6 6 6 6 13 13
42 39 35 35 35 29 26 23 19 16 10 16 16 16 13 6 6 10 10 10 10 16 19 19 16 16 13 13 10 13 6 3 0 0 3 6 6 6 6 3 3 6 3
32 35 32 32 26 23 19 29 29 23 16 13 16 16 13 6 10 10 10 10 10 10 16 16 16 19 16 13 13 6 6 6 3 3 0 0 0 3 3 3 6 6 6
32 23 23 23 29 23 23 26 26 23 19 10 10 6 3 6 6 10 10 10 10 10 16 16 16 13 13 13 10 10 10 6 10 6 3 0 3 0 0 3 3 6 6

GEFSSE_con_cape1000_180.txt.gz
Probability
29 48 90 97 90 94 94 97 100 100 100 97 97 97 97 97 97 94 90 87 87 84 81 68 65 68 68 65 52 65 81 77 81 81 87 77 84 84 84 81 77 74 94
35 58 94 100 97 94 94 97 100 100 100 100 97 100 97 97 97 94 87 87 84 74 71 68 65 58 65 65 58 61 74 77 74 77 81 87 84 87 84 84 94 87 97
45 58 81 100 97 97 97 97 100 100 100 97 94 94 94 94 97 94 87 87 77 74 71 61 58 61 68 65 61 58 61 65 77 94 94 77 71 81 84 81 84 84 77
42 48 71 100 97 97 97 97 97 94 97 90 90 90 94 90 94 94 84 81 81 77 71 65 58 61 58 58 55 58 65 71 74 87 87 65 58 77 77 74 74 74 68
52 68 87 94 94 94 90 90 90 90 90 90 87 87 87 90 90 87 77 81 71 71 71 58 61 65 65 61 58 65 71 77 87 94 74 61 65 81 77 71 65 71 71
65 71 81 87 90 90 90 90 90 90 87 84 84 84 77 81 81 74 81 71 68 65 61 58 55 55 61 68 65 74 81 77 84 58 55 61 71 94 90 74 58 58 68
68 65 77 90 87 84 84 84 84 84 84 77 77 77 77 77 77 74 74 71 58 55 52 55 55 61 61 61 58 71 81 87 81 55 48 45 74 90 90 77 74 68 71
55 68 77 87 84 84 84 81 77 81 77 74 77 74 74 74 77 77 71 68 61 48 52 52 58 58 61 68 71 74 81 81 74 29 35 58 87 94 84 77 81 74 74
55 61 68 74 81 81 81 81 77 77 77 77 77 74 74 77 77 74 74 71 61 58 55 58 58 61 68 74 68 71 74 84 71 29 16 42 84 94 81 87 81 84 81
55 48 48 58 81 71 77 77 77 77 77 77 74 71 71 74 74 65 71 71 65 68 58 55 52 58 68 71 71 74 77 81 42 13 23 58 87 84 84 77 81 84 81
55 55 48 52 52 55 55 68 74 74 71 68 74 74 77 77 68 68 52 65 55 58 52 58 68 65 65 65 71 77 71 45 35 29 35 55 71 71 58 68 77 81 77
55 55 55 52 52 48 39 65 71 65 71 68 65 68 68 68 65 52 48 68 65 61 58 65 71 71 68 58 61 65 48 42 32 29 48 61 68 58 58 65 68 68 77
61 58 45 48 55 39 58 58 65 65 65 58 52 61 68 65 68 61 58 58 71 58 58 65 65 58 61 45 48 48 42 42 26 26 52 61 61 58 52 55 61 61 68
65 58 61 55 55 61 65 58 65 52 58 45 58 61 58 58 61 58 58 55 58 58 58 61 55 52 55 48 45 39 29 32 39 32 45 61 58 52 45 48 58 58 55
61 58 61 65 68 65 65 58 55 58 52 52 55 58 65 61 61 58 52 55 52 55 58 52 45 48 42 42 42 23 32 32 35 35 42 55 52 55 65 45 52 58 55
65 65 68 58 65 61 58 58 58 58 58 55 58 55 61 61 58 52 48 48 55 48 42 45 48 42 42 45 39 42 42 29 35 42 35 45 55 55 58 52 52 52 48
61 68 65 61 58 58 58 58 55 55 55 58 58 58 61 61 61 58 52 55 52 45 42 39 42 42 45 35 45 48 42 39 42 45 39 29 42 42 45 45 48 45 45
65 65 61 52 58 61 61 61 61 61 58 58 61 58 58 55 48 58 55 42 35 39 39 35 35 29 35 32 35 35 32 32 35 29 35 32 26 26 35 35 29 32 35
65 61 58 55 55 58 61 61 61 58 55 58 58 55 45 39 35 35 32 32 29 35 32 19 19 26 26 29 19 29 26 19 23 16 19 10 13 26 29 23 29 23 26
58 55 55 55 55 55 55 58 55 55 48 48 45 45 39 35 26 26 29 26 29 26 26 23 23 26 26 23 13 6 13 13 19 19 19 10 19 13 16 19 16 16 19
52 52 48 48 48 52 55 52 52 48 42 39 42 39 32 29 23 26 23 23 23 19 19 13 16 19 26 23 19 13 16 13 13 13 16 13 10 10 10 13 10 16 13
52 52 48 45 45 52 48 45 39 39 35 35 32 29 29 29 26 13 19 23 19 23 19 16 16 13 16 19 13 10 3 6 6 6 6 3 6 10 6 10 6 13 13
48 45 45 45 48 42 45 39 35 35 32 29 32 29 29 29 26 19 16 16 13 23 13 13 16 13 16 13 19 13 3 0 3 3 6 6 6 3 6 6 6 13 6
39 39 42 42 42 39 32 35 32 32 32 29 29 29 29 23 19 16 16 16 13 10 13 10 10 16 10 16 16 16 16 0 0 0 3 3 3 3 6 6 3 6 6
35 35 35 45 45 35 32 35 35 35 32 26 26 19 19 23 16 13 16 16 13 13 10 16 13 16 10 10 16 16 13 3 0 0 0 0 3 3 3 0 0 0 0
35 35 35 32 39 35 35 29 29 29 29 23 23 16 16 19 19 13 13 13 13 16 16 16 16 13 6 13 13 13 13 3 3 0 0 0 0 3 3 0 0 0 0

GEFSSE_con_cape1000_186.txt.gz
Probability
29 81 90 100 100 100 100 100 97 97 97 97 97 97 97 100 97 97 94 87 87 81 74 74 74 68 77 68 77 77 84 81 84 81 74 81 87 90 90 94 94 81 97
32 77 97 100 100 100 100 100 100 97 97 97 97 97 97 97 97 94 90 87 84 74 71 68 65 68 65 68 77 81 81 84 84 81 81 77 84 87 87 90 87 84 90
48 74 90 94 100 100 100 100 100 94 90 94 94 97 94 94 94 87 84 84 84 81 71 68 68 68 65 65 68 71 74 74 84 84 87 65 65 81 81 90 87 90 94
42 65 81 100 100 100 100 94 94 90 90 90 94 87 84 87 90 87 81 81 77 65 65 58 58 58 55 55 58 61 65 74 81 87 55 39 48 81 87 84 87 87 84
45 61 87 100 100 97 94 94 94 90 90 87 84 87 87 90 87 84 77 71 68 65 61 58 58 61 55 58 52 58 68 68 74 71 45 32 26 87 94 81 84 84 87
52 74 94 100 100 97 97 97 94 90 87 84 84 87 87 87 90 84 74 65 61 55 52 52 48 42 42 48 45 48 52 71 68 39 16 19 23 71 90 81 77 81 81
55 71 90 100 94 94 90 90 87 87 87 84 84 77 81 77 77 77 77 65 55 52 52 55 48 45 45 45 45 58 68 71 55 29 10 6 16 81 81 74 71 81 84
65 74 87 90 90 87 84 84 81 81 77 74 71 77 77 81 77 77 77 71 58 52 52 55 61 48 52 52 58 68 68 61 42 23 10 6 32 74 71 74 74 77 81
65 68 71 81 81 84 81 81 81 77 71 71 68 71 71 74 68 68 77 71 71 61 55 52 55 55 55 55 61 68 71 65 45 26 19 10 65 84 74 77 77 74 77
48 58 68 68 68 71 74 74 74 71 71 68 71 68 68 68 65 68 68 71 61 61 58 65 58 61 65 68 65 71 65 58 26 26 19 19 68 71 71 74 68 68 68
42 45 52 58 58 58 61 71 71 68 68 65 65 61 61 61 48 55 61 61 68 68 58 65 61 65 61 61 61 61 58 35 19 19 16 23 61 65 61 68 68 71 71
29 35 42 52 48 45 58 61 61 58 61 58 55 61 58 35 32 42 52 61 61 61 55 55 58 61 61 42 32 52 39 13 16 19 13 42 48 52 61 61 61 65 65
26 29 29 35 29 32 35 48 45 45 52 42 45 39 26 23 16 23 16 42 52 52 42 42 45 42 32 19 10 10 10 13 13 13 16 42 55 52 58 58 61 58 55
32 32 29 23 16 10 16 29 26 29 29 26 26 26 23 13 6 0 3 13 13 6 6 6 13 16 10 3 3 3 3 3 6 6 3 48 52 61 58 58 58 61 48
35 26 29 26 23 13 13 16 26 23 26 23 19 19 19 10 6 0 0 0 0 0 0 3 3 3 6 3 3 3 3 3 3 3 0 52 52 61 58 55 58 52 52
32 32 32 29 32 23 19 19 16 19 23 10 16 16 16 6 6 3 0 0 0 0 0 0 0 0 0 0 0 0 0 6 6 6 3 6 42 48 48 48 52 52 45
39 39 39 35 26 29 23 26 29 23 13 13 13 19 16 6 6 6 6 3 0 0 0 0 0 0 0 0 0 0 0 0 3 0 0 0 6 23 48 48 48 52 48
32 32 32 39 32 26 26 29 29 26 23 23 26 19 32 19 10 10 6 6 0 0 0 0 0 0 0 0 0 0 0 0 0 0 0 0 0 0 13 35 39 42 39
32 29 32 32 32 32 32 26 26 26 19 26 26 19 23 23 10 10 6 0 0 0 0 0 0 0 0 0 0 0 0 0 0 0 0 0 0 0 0 0 26 32 35
32 29 29 32 29 26 29 29 29 23 16 16 19 19 13 10 6 6 6 6 3 3 0 0 0 0 0 0 0 0 0 0 0 0 0 0 0 0 0 0 0 3 23
29 26 29 32 29 29 29 26 26 26 19 10 16 13 10 10 10 3 3 6 6 6 0 0 0 0 0 0 0 0 0 0 0 0 0 0 0 0 0 0 0 0 0
26 26 26 23 29 29 29 26 26 19 16 10 16 10 3 3 6 3 3 3 3 3 3 0 0 0 0 0 0 0 0 0 0 0 0 0 0 0 0 0 0 0 0
26 26 26 26 29 29 29 26 19 16 16 19 3 6 6 6 6 6 3 6 6 6 6 3 0 0 0 0 0 0 0 0 0 0 0 0 0 0 0 0 0 0 0
29 29 26 29 29 29 26 23 26 16 16 16 6 6 6 6 6 6 6 3 3 0 3 3 0 0 0 0 0 0 0 0 0 0 0 0 0 0 0 0 0 0 0
26 32 29 26 26 23 23 23 26 19 6 3 3 3 6 6 6 6 6 3 3 3 3 3 0 0 0 0 0 0 0 0 0 0 0 0 0 0 0 0 0 0 0
26 26 26 26 19 19 19 19 19 16 6 3 3 3 6 6 6 6 6 6 3 3 3 3 3 0 0 0 0 0 0 0 0 0 0 0 0 0 0 0 0 0 0

GEFSSE_con_cape1000_192.txt.gz
Probability
13 55 87 87 87 87 84 90 94 97 97 94 90 94 94 97 97 94 94 97 87 84 81 71 71 71 74 71 77 74 71 87 84 81 81 87 81 81 77 74 71 61 84
23 65 87 90 87 87 94 90 87 90 90 90 90 90 94 94 94 87 84 87 84 77 71 68 61 61 61 68 71 71 68 71 65 71 71 71 74 77 84 74 71 68 81
45 61 87 94 90 87 87 87 84 84 84 84 87 87 87 87 87 84 77 77 77 77 71 65 58 61 58 58 61 65 61 65 65 68 68 48 68 68 81 77 81 90 87
48 65 77 94 94 87 90 87 81 84 74 77 81 84 84 84 84 81 77 77 77 71 65 58 58 55 55 58 61 65 65 65 65 71 65 55 45 65 81 81 77 77 77
55 68 84 90 94 94 90 90 87 77 81 81 84 84 87 87 81 74 74 77 71 68 52 48 52 58 55 55 45 48 55 61 65 55 35 39 42 52 71 81 74 74 74
61 65 81 90 90 94 94 90 87 81 81 74 77 81 87 87 84 77 68 58 58 58 52 52 45 52 45 42 42 45 45 52 48 35 32 29 39 52 68 84 81 74 71
61 68 81 90 87 94 90 90 87 87 81 81 81 84 84 84 77 74 61 58 58 58 52 42 45 48 45 42 45 55 55 52 39 32 26 23 32 58 77 84 81 71 71
55 58 84 84 90 90 87 87 84 81 84 84 81 77 74 74 71 65 71 55 55 52 48 45 42 42 48 55 52 58 55 55 35 19 23 16 32 74 81 81 74 74 74
55 68 74 74 81 81 81 81 81 84 77 74 71 74 71 65 61 68 68 65 65 58 48 55 48 48 48 52 55 61 55 58 35 26 19 26 48 77 77 74 74 68 65
48 52 65 68 68 68 65 74 74 74 74 65 65 65 65 65 65 65 68 65 68 61 55 55 55 55 58 58 65 71 65 52 23 26 23 23 42 61 68 65 68 65 58
45 55 58 58 58 58 61 65 68 74 65 65 65 65 65 61 55 58 61 61 61 58 58 58 65 61 61 58 58 61 52 35 23 23 16 26 52 58 61 65 61 58 55
42 48 55 55 55 52 58 61 61 55 55 52 52 55 55 45 35 48 48 55 55 52 52 55 52 58 55 45 45 42 29 16 10 19 23 32 55 61 55 58 58 55 55
26 42 48 55 55 48 48 45 48 45 45 48 48 48 32 16 13 19 16 32 35 39 42 45 35 35 29 23 16 16 13 13 10 6 23 39 45 58 61 55 55 58 52
26 26 35 45 45 39 35 39 39 39 39 42 42 32 19 16 13 10 6 13 19 16 6 13 10 10 13 13 6 13 10 10 10 3 3 19 39 45 55 58 55 61 58
23 26 26 32 32 29 23 19 29 35 35 32 23 23 16 13 0 0 0 3 6 6 3 3 6 6 6 6 6 6 10 6 10 10 3 6 26 39 52 52 55 55 55
23 23 19 29 29 19 19 19 23 29 26 19 19 19 10 6 0 0 0 0 0 6 6 3 3 3 3 0 3 3 3 10 6 0 3 6 19 29 35 42 42 55 55
26 23 26 23 26 19 19 19 13 16 16 16 13 13 13 6 0 0 0 0 0 0 0 0 0 0 0 0 0 0 0 0 0 0 0 6 10 10 29 39 45 42 39
23 19 19 26 23 19 19 19 10 10 16 16 13 6 6 0 0 0 0 0 0 0 0 0 0 0 0 0 0 0 0 0 0 3 0 3 3 6 10 26 35 35 29
26 23 26 26 23 19 13 10 10 6 10 10 6 6 6 10 6 3 0 0 0 0 0 0 0 0 0 0 0 0 0 0 0 0 3 3 3 3 6 6 6 19 23
29 29 26 23 23 13 13 10 10 6 13 10 13 3 3 10 10 3 3 3 0 0 0 0 0 0 0 0 0 0 0 0 0 0 0 0 0 3 3 3 6 6 10
26 26 23 23 23 13 16 16 16 16 13 13 10 10 6 3 0 3 6 3 0 0 0 0 0 0 0 0 0 0 0 0 0 0 0 0 0 0 3 6 6 3 3
26 26 26 26 26 19 19 16 16 13 13 13 6 6 6 6 3 0 6 6 6 3 0 0 0 0 0 0 0 0 0 0 0 0 0 0 0 0 0 0 0 0 0
23 26 26 26 23 19 19 19 6 3 3 3 6 6 3 6 6 6 6 6 6 6 6 0 0 0 0 0 0 0 0 0 0 0 0 0 0 0 0 0 0 0 0
16 23 26 26 23 19 16 19 16 16 16 10 10 6 3 3 6 6 6 6 6 6 6 6 0 0 0 0 0 0 0 0 0 0 0 0 0 0 0 0 0 0 0
10 16 26 23 19 16 16 19 16 13 10 3 3 3 3 3 6 6 6 6 6 6 6 6 0 0 0 0 0 0 0 0 0 0 0 0 0 0 0 0 0 0 0
13 16 16 13 13 10 13 13 16 13 10 3 3 3 3 3 3 6 6 6 6 6 6 6 3 0 0 0 0 0 0 0 0 0 0 0 0 0 0 0 0 0 0

GEFSSE_con_cape1000_198.txt.gz
Probability
19 39 68 74 77 77 90 87 81 87 90 90 94 97 97 94 94 94 84 81 81 84 77 81 84 77 77 71 65 68 65 74 68 74 74 71 74 77 81 74 74 71 81
16 45 71 77 81 77 87 90 90 90 87 90 90 90 87 84 87 87 84 84 77 77 74 71 71 65 61 65 61 61 61 58 61 65 65 61 65 68 71 71 71 77 81
26 55 65 77 81 84 87 87 90 90 90 90 87 81 81 81 84 81 77 77 77 74 71 65 61 58 61 61 55 61 58 65 58 65 65 42 48 58 61 71 74 90 87
35 58 61 84 84 90 90 90 87 84 84 84 84 81 77 81 87 81 77 77 71 68 65 65 58 58 52 55 61 58 55 58 65 65 55 29 32 68 61 71 74 74 81
52 68 77 81 84 87 81 84 81 84 81 81 84 81 84 81 77 74 68 61 58 55 55 48 52 45 45 45 48 55 55 52 55 48 29 23 39 74 71 65 71 77 77
55 58 74 81 81 81 81 84 81 81 77 77 77 77 71 71 74 65 65 55 55 55 52 48 48 48 42 42 39 45 52 48 45 32 39 42 45 71 65 71 71 71 81
48 52 71 81 81 81 77 77 81 77 77 74 77 71 74 65 65 61 58 55 55 52 52 48 55 48 42 42 42 45 42 39 52 35 35 39 45 77 68 68 71 74 68
48 48 74 74 81 77 74 74 84 81 77 77 77 77 74 71 68 65 58 58 52 52 52 52 48 48 42 39 39 39 42 45 32 26 32 39 55 61 68 74 68 68 68
42 52 65 65 77 71 71 71 74 74 74 74 74 68 68 68 68 68 61 65 58 58 52 45 42 45 39 45 48 55 45 45 39 29 29 39 55 61 65 74 74 71 61
45 52 55 61 61 58 58 65 68 68 71 71 65 61 61 65 61 65 65 65 55 55 55 48 48 55 55 58 58 58 48 42 29 16 29 32 45 48 58 61 68 68 65
52 55 58 55 58 61 55 65 74 71 68 68 68 61 61 52 39 55 45 55 52 48 48 48 55 52 55 58 48 52 48 29 19 23 35 39 48 45 48 52 58 61 61
65 65 55 55 55 58 55 65 65 61 61 58 55 58 55 55 45 35 45 52 48 48 48 45 45 45 35 26 32 35 32 29 19 26 26 39 35 39 45 48 48 48 55
58 61 55 52 55 58 61 65 61 65 61 52 52 52 55 52 48 42 48 52 52 52 48 42 42 26 19 19 23 19 16 16 16 23 23 39 35 39 42 42 45 52 52
58 55 55 55 58 61 58 61 58 61 61 48 48 52 52 48 48 45 55 45 55 52 45 35 45 23 26 19 16 16 13 23 16 13 19 35 32 39 35 39 45 45 45
61 58 55 58 65 61 65 61 58 61 42 45 48 48 45 48 48 45 58 58 45 42 48 45 39 32 29 16 13 13 10 13 16 13 19 26 26 29 35 35 39 45 45
65 58 58 55 58 61 61 61 58 55 58 42 45 45 45 52 48 55 58 58 55 48 42 29 29 29 23 23 19 6 10 6 19 32 29 26 23 29 32 35 35 42 39
65 61 58 55 55 58 58 55 52 48 42 39 39 48 52 48 55 55 55 55 48 52 48 48 32 32 29 16 10 10 10 13 13 23 26 26 23 23 32 42 32 35 35
58 61 58 52 55 55 58 58 45 45 45 42 48 48 48 52 52 52 52 52 48 48 48 45 32 19 19 16 16 13 6 19 13 19 19 26 23 19 26 32 32 32 29
55 52 52 52 55 55 55 52 52 48 45 45 45 45 45 42 42 45 42 45 45 45 45 19 16 16 19 13 3 6 16 16 23 13 16 13 19 26 23 32 19 19 26
48 48 48 48 48 52 48 45 45 45 42 42 42 45 45 45 45 45 45 42 39 32 29 23 16 23 13 13 0 0 10 13 19 23 13 13 16 16 16 16 19 19 13
48 48 48 48 48 45 42 48 48 45 42 45 39 39 39 39 42 39 32 29 29 29 29 13 10 13 6 3 3 13 13 10 13 16 13 10 13 16 16 16 23 16 19
45 48 48 48 48 45 42 42 42 42 42 39 35 35 35 35 35 32 29 29 29 32 29 29 23 10 6 3 3 3 13 6 13 10 10 10 10 16 13 10 13 10 10
45 39 45 48 45 42 42 42 39 35 39 32 32 32 32 35 29 29 29 29 29 26 23 26 23 16 3 3 3 3 6 3 6 6 10 10 13 16 16 13 6 6 6
39 39 45 39 42 39 39 42 35 35 35 32 32 29 32 29 29 26 23 23 23 19 26 19 13 13 10 3 6 6 6 6 6 3 10 10 13 16 16 6 6 6 6
35 39 35 39 35 35 35 35 32 35 35 32 26 29 23 23 23 19 19 19 19 19 16 16 13 13 13 10 6 6 6 6 6 6 3 6 10 13 13 13 10 6 3
35 32 35 35 35 35 35 35 35 35 35 35 32 26 26 16 23 16 16 19 19 19 13 16 16 10 10 6 6 6 6 6 6 6 6 6 6 6 13 10 10 10 6

GEFSSE_con_cape1000_204.txt.gz
Probability
52 58 87 87 90 84 81 77 84 87 90 90 87 84 81 84 87 84 68 68 68 68 52 65 71 68 58 55 48 48 55 55 61 55 61 65 74 71 61 55 61 71 87
58 55 87 90 90 84 77 77 77 87 90 90 81 81 77 77 77 71 74 65 68 68 58 65 65 65 55 52 42 42 52 39 42 45 48 52 71 61 68 71 77 87 87
61 65 74 90 87 84 84 84 77 81 77 81 84 84 84 81 77 74 71 68 68 68 65 58 55 52 52 45 35 39 39 39 55 48 65 58 55 65 71 74 77 81 84
68 61 71 90 90 87 87 84 77 74 74 77 74 74 74 71 71 71 68 65 71 61 55 52 42 48 42 39 35 35 32 42 42 61 58 52 48 58 65 74 74 71 77
71 74 87 87 87 81 77 74 81 77 77 74 74 74 68 65 68 68 65 61 58 55 48 42 45 42 39 39 42 39 39 35 45 61 45 42 52 71 71 58 65 61 65
61 68 81 87 81 77 77 74 74 77 74 71 71 68 68 68 71 71 68 58 52 52 48 42 45 39 35 35 35 35 42 42 55 32 26 39 45 68 68 55 58 61 71
61 68 74 84 81 74 71 71 71 68 65 68 65 65 65 65 68 68 61 55 52 52 52 45 42 42 35 35 39 35 42 45 45 35 35 35 58 77 71 61 65 58 71
58 68 71 81 77 71 74 71 68 71 71 71 71 65 68 61 65 61 55 55 55 52 48 48 48 35 39 32 29 39 45 52 39 29 32 35 74 84 74 71 65 68 65
55 68 65 68 71 74 71 71 71 71 74 71 74 71 61 61 58 65 65 65 55 55 58 55 48 55 55 42 45 48 45 55 42 29 29 26 61 71 61 58 61 61 61
55 65 55 65 65 65 68 71 74 74 74 74 71 65 65 65 58 58 58 61 55 52 52 52 55 55 55 52 52 55 58 58 32 16 16 39 61 55 58 52 55 52 52
61 68 55 55 58 48 58 65 71 74 71 71 61 65 61 55 42 55 48 61 55 55 55 52 52 52 58 58 55 55 55 29 10 13 23 42 58 52 52 48 45 48 48
58 65 58 55 58 52 45 61 61 61 58 58 58 52 55 52 55 39 48 55 61 61 55 52 52 58 55 35 45 55 35 19 10 19 16 48 52 45 45 45 48 52 48
68 61 58 61 65 58 58 65 65 61 65 58 55 58 58 55 52 42 48 55 61 58 52 52 58 39 35 39 39 35 32 23 19 23 23 45 42 42 39 35 42 42 39
65 65 65 61 61 61 61 61 65 65 65 55 55 55 52 45 48 45 52 52 48 45 52 52 42 29 29 32 32 29 26 23 19 19 23 45 35 35 42 42 39 42 42
71 65 68 74 68 68 68 65 55 61 55 58 52 52 52 48 48 48 42 48 45 45 42 45 42 39 35 35 23 16 16 16 26 23 29 35 35 32 35 35 35 39 35
71 68 65 61 58 58 55 55 58 58 58 55 52 52 52 52 48 48 48 45 45 42 42 39 42 35 32 32 29 23 23 16 23 29 19 26 32 35 35 29 35 39 32
84 71 65 58 52 48 48 52 55 55 55 55 52 52 52 52 52 52 45 45 42 39 45 42 32 29 29 29 32 29 19 16 19 23 19 19 16 32 29 35 39 39 39
71 61 61 48 48 48 48 52 55 52 52 52 55 52 52 52 52 48 45 42 39 42 42 42 39 35 32 26 23 19 13 13 16 19 19 19 13 13 29 35 39 39 35
65 65 55 48 48 48 48 48 48 52 55 55 55 55 48 42 42 42 39 42 39 35 39 32 29 32 26 23 19 16 16 16 13 6 19 16 16 29 19 16 32 35 32
61 61 48 48 48 45 45 48 48 45 45 42 45 42 45 45 42 42 39 39 39 39 35 39 35 32 23 19 6 10 13 13 10 10 13 6 26 13 16 6 10 16 23
58 58 55 48 48 48 45 48 48 45 42 39 35 39 42 42 45 45 39 35 42 32 35 32 32 23 19 19 10 6 10 13 13 23 19 16 13 10 13 10 16 6 13
55 61 55 52 48 48 45 52 48 45 35 39 35 42 39 39 39 35 39 35 32 39 35 32 26 23 23 6 6 6 0 3 13 6 13 10 10 10 13 10 10 10 6
45 45 45 52 52 48 42 42 42 45 42 35 35 39 35 39 39 35 35 35 35 35 29 26 26 29 19 10 3 3 0 0 0 6 10 10 10 10 13 10 10 13 6
45 45 55 52 48 48 45 42 42 45 39 35 42 42 39 35 35 35 35 35 32 32 23 19 23 26 26 16 6 3 3 3 6 6 6 10 10 10 10 13 10 10 6
48 42 45 45 45 45 45 45 48 42 35 39 42 35 32 29 32 26 29 29 29 29 29 29 26 23 13 10 10 6 3 6 6 6 6 6 10 10 10 10 10 10 6
45 42 45 45 45 42 42 45 42 45 45 42 35 32 32 29 26 26 23 29 29 29 29 26 26 19 19 10 10 3 0 0 0 6 3 3 3 10 10 10 10 6 6

GEFSSE_con_cape1000_210.txt.gz
Probability
35 61 90 90 90 90 84 87 81 81 81 84 90 84 84 81 81 81 77 71 74 74 71 61 58 58 65 58 52 55 52 58 71 71 68 71 81 94 94 87 84 71 90
39 71 94 90 87 87 90 84 84 84 81 77 81 81 81 77 74 71 71 74 74 74 58 58 65 58 45 45 39 42 42 52 58 58 55 52 65 84 90 87 81 77 90
45 71 87 94 90 90 90 87 87 84 77 77 81 81 81 74 74 74 71 71 71 71 61 55 58 48 48 39 26 29 35 45 55 55 68 48 52 74 90 87 84 87 84
45 58 74 94 90 87 87 84 87 81 74 74 74 77 68 65 68 65 65 68 68 65 61 52 52 42 35 29 26 29 32 35 39 48 39 42 32 68 81 87 87 87 81
45 61 77 94 87 87 87 87 84 77 77 77 77 77 68 68 68 68 65 61 61 61 55 52 39 35 35 32 32 35 39 42 48 45 26 13 16 58 84 81 77 87 84
55 58 81 94 84 84 87 81 84 81 81 81 74 74 74 71 71 71 65 61 58 58 55 48 39 32 32 35 32 32 35 32 39 29 13 6 10 55 81 77 74 77 77
48 65 84 90 87 84 74 77 77 81 81 77 74 71 68 71 71 71 68 58 55 52 48 42 39 35 35 35 32 35 35 32 32 19 10 6 13 61 81 71 71 71 74
55 65 81 84 84 81 74 77 77 77 74 74 74 71 68 68 68 71 71 61 52 52 52 42 45 42 35 35 35 32 39 45 42 26 10 6 29 74 74 71 71 68 68
65 68 71 81 74 71 71 74 71 74 74 74 68 68 68 68 68 68 71 61 65 58 58 52 45 48 48 45 42 42 48 58 35 10 16 6 26 61 58 65 61 65 74
61 58 58 61 61 65 65 71 71 71 71 68 65 61 65 65 61 55 58 61 61 58 52 48 45 48 48 52 48 48 55 52 23 13 10 3 52 48 42 52 52 55 58
48 48 52 58 58 61 61 68 68 68 71 68 65 61 61 45 39 39 45 58 58 58 58 58 58 52 52 55 58 55 52 29 16 10 0 10 42 48 52 55 58 52 45
45 42 39 48 48 45 52 55 55 58 48 42 39 39 39 29 29 29 32 52 52 55 52 52 48 55 42 29 29 42 26 13 6 3 0 32 42 48 45 48 45 42 39
45 39 39 39 39 42 32 35 32 29 32 35 35 35 32 26 23 26 19 32 35 39 32 42 42 35 26 16 13 6 6 13 3 3 6 39 42 45 42 42 42 39 39
39 35 32 32 29 29 26 32 29 29 29 29 29 32 26 23 16 19 19 23 23 26 19 19 16 23 13 10 13 0 0 3 3 3 3 35 39 42 39 32 35 35 42
35 35 26 19 19 23 16 26 32 32 32 32 26 26 19 16 13 13 16 23 19 19 13 13 13 6 10 6 13 10 3 3 6 0 0 23 39 39 39 35 35 35 39
29 32 26 19 19 23 23 26 35 32 26 26 23 19 23 19 16 16 13 19 16 19 10 10 10 10 10 6 3 3 3 0 3 0 0 10 26 29 32 35 32 35 35
29 32 29 29 26 23 23 23 26 26 23 16 26 26 26 19 19 16 16 19 16 19 16 13 10 6 3 3 0 0 0 0 0 0 0 0 3 16 23 32 42 42 35
32 29 29 39 26 26 29 26 23 19 19 16 19 19 19 23 16 19 19 23 16 23 16 10 3 3 0 0 0 0 0 0 0 0 0 0 0 0 13 19 26 39 35
32 26 32 35 29 26 26 26 16 19 19 16 13 16 19 23 26 26 26 19 19 16 13 13 6 0 0 0 0 0 0 0 0 0 0 0 0 0 0 10 19 19 26
29 32 32 32 32 29 26 23 26 29 26 23 23 19 19 23 29 26 26 19 16 13 6 3 3 3 3 0 3 0 0 0 0 0 0 0 0 0 0 0 3 13 23
29 32 29 35 32 32 29 29 29 26 23 23 26 26 29 29 29 29 26 23 16 13 10 3 3 3 0 0 0 0 0 0 0 0 0 0 0 0 0 0 0 0 3
32 32 29 32 29 35 29 26 26 29 26 26 26 26 26 32 26 29 23 19 13 13 13 3 3 0 0 0 0 0 0 0 0 0 0 0 0 0 0 0 0 0 0
35 29 29 26 26 29 26 29 29 26 23 19 19 19 19 23 26 19 19 16 13 13 13 6 6 6 0 0 0 0 0 0 0 0 0 0 0 0 0 0 0 0 0
26 26 26 26 26 26 26 26 26 23 23 19 23 16 13 13 16 16 16 16 13 13 10 6 3 3 3 0 0 0 0 0 0 0 0 0 0 0 0 0 0 0 0
29 23 23 23 26 26 19 19 16 19 19 16 13 13 13 13 13 13 16 16 16 10 10 6 6 3 3 3 0 0 0 0 0 0 0 0 0 0 0 0 0 0 0
23 19 19 19 16 16 16 16 19 19 19 16 13 13 13 13 13 13 16 16 13 13 10 6 3 3 3 0 0 0 0 0 0 0 0 0 0 0 0 0 0 0 0

GEFSSE_con_cape1000_216.txt.gz
Probability
23 58 94 87 87 81 81 81 84 84 81 81 81 77 81 81 81 81 81 81 81 77 74 74 74 71 68 58 58 58 58 65 68 65 65 68 71 81 87 84 84 71 84
32 58 90 90 84 84 81 81 81 77 81 77 77 77 81 84 81 77 77 77 77 74 71 65 55 61 55 45 48 52 55 65 61 65 58 58 58 77 81 77 74 71 84
35 61 87 90 84 84 84 81 81 81 84 84 81 84 84 84 81 77 77 77 77 77 71 65 65 45 48 48 42 39 39 55 58 58 55 55 48 68 87 84 77 81 84
45 58 84 87 87 84 84 84 81 77 81 84 84 81 81 81 74 74 77 74 71 74 61 55 52 52 45 45 45 35 39 35 55 58 48 42 42 58 71 81 77 84 77
39 45 81 84 84 84 81 84 81 74 74 77 77 77 68 71 68 71 71 65 61 65 61 55 52 48 48 42 42 32 39 42 48 45 42 39 42 58 71 74 74 77 77
32 58 77 87 84 87 84 81 74 77 68 71 71 68 65 68 65 68 68 68 65 61 55 55 52 52 45 35 35 39 32 32 35 39 32 29 32 52 61 77 71 74 71
39 55 81 90 87 81 77 74 74 71 71 68 68 68 68 68 68 68 61 65 61 58 55 48 48 45 45 32 32 35 35 39 29 26 19 19 32 58 65 71 71 71 74
39 52 74 90 84 77 74 71 71 68 68 65 68 74 68 68 68 68 68 68 68 65 58 55 52 39 42 45 42 39 39 52 26 19 19 16 29 52 61 71 71 71 74
48 58 71 74 77 77 71 71 71 74 71 71 71 71 71 68 68 65 65 61 65 65 55 48 48 42 42 45 42 45 42 45 35 32 19 19 29 39 52 58 68 68 65
55 55 58 65 65 68 68 68 71 71 71 71 71 68 65 68 61 58 55 55 55 55 52 48 48 48 48 48 48 52 48 42 29 26 26 19 52 42 48 55 55 58 58
48 48 52 52 55 61 61 65 68 68 68 68 65 65 65 48 42 45 52 55 55 55 52 48 52 48 45 48 48 48 48 35 26 19 23 23 39 48 52 52 48 48 52
42 48 42 45 48 52 58 55 52 55 55 58 45 42 39 35 29 45 39 58 58 52 52 48 45 42 45 39 39 35 23 19 19 16 16 26 42 39 42 45 48 45 45
48 45 42 48 45 45 45 42 39 39 39 39 35 35 32 26 23 23 19 32 32 39 32 32 39 39 32 32 26 16 16 13 10 10 6 26 39 39 39 42 45 45 39
32 35 39 35 45 45 35 32 29 32 29 26 26 29 26 23 13 13 10 19 23 29 23 19 23 23 19 19 19 19 16 3 3 3 3 19 39 42 39 39 39 39 35
29 32 29 32 29 29 19 19 26 29 26 23 26 26 23 13 13 10 10 13 16 16 13 16 16 13 13 13 16 16 10 3 0 0 3 16 32 32 32 32 32 29 32
29 26 26 23 26 19 23 19 19 16 16 16 16 19 23 13 13 10 10 6 6 13 13 13 13 10 6 6 6 6 6 3 3 0 3 6 23 29 29 29 23 26 23
26 26 23 16 19 19 16 16 13 16 16 19 16 16 13 13 10 3 3 3 3 10 10 10 10 3 3 6 6 6 3 3 3 3 3 3 10 23 23 23 19 19 19
23 26 19 19 23 19 19 10 6 13 16 16 13 10 16 13 6 0 3 3 3 6 10 6 6 6 3 6 3 3 0 0 0 0 0 0 0 3 13 19 23 23 19
19 19 19 23 16 16 13 10 10 10 13 3 3 3 10 13 6 6 0 3 0 0 10 10 10 6 6 3 3 0 0 0 0 0 0 0 0 3 10 13 19 19 19
19 13 16 16 16 10 10 6 6 3 3 3 3 3 3 6 6 3 3 3 0 6 6 6 6 6 6 3 3 0 0 0 0 0 0 0 0 0 0 0 10 16 19
6 10 10 13 10 10 6 6 6 6 3 3 3 3 6 6 6 3 3 3 0 3 6 6 3 6 3 0 0 0 0 0 0 0 0 0 0 0 0 0 0 0 10
10 16 16 16 13 13 6 10 10 6 6 6 10 10 10 6 6 6 3 3 6 6 3 3 3 3 3 0 0 0 0 0 0 0 0 0 0 0 0 0 0 0 0
13 10 19 16 10 10 6 13 13 6 6 10 10 10 13 10 10 13 13 13 13 13 10 6 3 3 0 0 0 0 0 0 0 0 0 0 0 0 0 0 0 0 0
10 6 6 10 10 6 6 10 10 13 13 10 6 6 10 6 6 13 13 13 13 13 10 6 3 3 0 0 0 0 0 0 0 0 0 0 0 0 0 0 0 0 0
10 10 6 10 6 6 10 6 10 10 10 3 6 10 10 6 6 10 13 13 13 10 6 3 3 3 0 0 0 0 0 0 0 0 0 0 0 0 0 0 0 0 0
13 10 10 10 6 3 3 6 6 13 10 10 10 10 10 10 10 10 10 10 10 6 6 6 3 3 3 0 0 0 0 0 0 0 0 0 0 0 0 0 0 0 0

GEFSSE_con_cape1000_222.txt.gz
Probability
32 55 74 81 87 81 84 81 81 81 84 84 81 81 87 84 77 81 84 81 77 68 74 74 74 71 65 55 58 61 61 58 58 61 58 65 61 74 68 74 81 77 81
35 58 77 84 81 84 84 81 77 77 81 81 81 77 77 81 77 77 74 77 74 71 71 71 68 58 55 52 55 58 65 61 52 61 58 61 65 68 74 81 84 77 87
45 71 71 84 81 77 81 74 74 74 65 74 81 77 77 77 74 71 68 74 74 77 74 68 65 65 55 48 45 45 48 52 58 55 58 39 52 71 74 68 74 71 74
45 68 68 84 84 84 84 81 74 68 71 71 77 74 71 68 68 71 74 74 74 68 61 61 58 52 55 45 35 42 45 48 61 65 42 29 32 61 65 71 74 77 77
55 68 77 84 84 84 81 81 84 77 81 77 77 77 74 68 68 68 71 68 68 61 58 58 52 52 45 39 39 35 39 45 55 55 35 29 39 58 61 71 77 77 74
55 68 77 87 87 81 81 81 81 81 74 74 71 65 65 68 65 65 65 65 58 58 58 52 48 48 48 39 42 48 48 48 39 26 32 35 45 61 61 74 77 77 74
48 58 71 90 87 81 77 74 74 71 74 68 68 65 61 61 61 61 61 55 58 58 55 45 42 42 42 39 39 45 42 48 45 23 26 29 39 65 61 68 81 81 77
45 52 71 84 77 77 74 77 74 71 68 68 68 68 61 61 61 58 61 55 55 55 55 52 52 48 48 48 48 48 48 42 26 13 23 29 52 48 42 65 74 77 71
48 48 58 61 68 74 74 74 71 71 71 71 71 68 61 61 61 61 58 52 52 45 48 45 45 45 42 42 45 48 48 45 26 16 10 35 52 45 48 52 55 61 61
48 48 55 58 61 65 71 71 71 71 68 68 68 68 65 58 55 55 48 45 45 42 42 42 42 42 45 45 45 48 45 45 23 16 26 23 45 45 45 52 48 48 52
52 52 48 55 65 55 65 65 68 68 68 68 65 65 61 52 45 48 35 39 39 39 39 48 45 42 45 42 42 42 45 26 16 19 26 42 45 42 48 45 45 39 42
61 58 58 58 61 55 45 61 65 61 65 65 61 61 55 48 52 32 32 42 42 45 42 45 42 45 39 35 42 35 32 29 16 23 32 42 45 45 48 45 45 42 35
68 71 65 65 65 52 55 58 61 61 65 58 61 61 61 48 42 39 39 42 42 42 39 39 39 35 39 42 45 42 29 19 19 13 23 39 39 35 39 39 39 39 42
71 68 61 61 65 58 55 58 58 55 65 55 58 61 58 48 42 39 45 35 35 35 39 35 42 32 32 35 32 39 39 35 19 16 32 26 26 26 29 35 39 39 39
68 65 61 61 65 65 61 61 58 58 55 55 58 52 48 42 39 35 45 45 35 32 32 35 26 23 26 26 29 29 26 26 16 19 16 26 23 29 29 29 32 32 29
65 65 61 61 65 61 65 55 52 42 48 45 39 42 42 45 42 42 45 48 39 35 29 35 26 23 23 29 29 29 23 19 19 16 16 16 19 29 26 29 26 26 23
61 61 61 58 61 58 58 52 48 45 45 39 39 39 39 39 45 39 42 42 39 39 39 35 26 23 23 26 26 26 29 23 19 19 16 13 16 19 26 23 26 23 23
55 58 58 52 55 61 58 52 42 39 39 42 39 35 35 39 35 39 32 29 32 32 32 26 29 29 29 26 26 29 26 23 23 26 23 23 13 13 16 23 23 23 23
52 48 55 55 55 55 55 52 42 42 39 35 35 35 32 32 32 32 35 32 32 29 29 26 23 29 26 29 23 26 19 19 26 16 19 19 13 10 10 23 23 23 23
52 58 61 55 52 45 45 42 39 35 32 26 32 29 32 32 32 29 29 32 29 23 26 29 26 29 29 32 13 10 16 19 19 19 13 16 23 13 10 10 13 13 23
52 61 65 52 48 39 35 35 32 32 29 23 29 29 29 32 32 35 32 32 32 32 29 26 29 26 29 29 13 10 13 10 16 16 16 16 10 13 13 10 16 13 13
52 55 58 61 55 48 39 39 35 29 29 29 29 29 32 32 35 29 35 35 32 32 32 29 26 26 26 23 16 16 16 16 19 6 16 13 6 6 13 6 13 19 16
48 52 52 52 48 39 35 35 26 29 29 29 23 26 26 26 26 26 23 29 26 26 23 26 26 26 26 23 16 23 16 10 10 10 10 3 19 6 10 6 10 16 26
42 48 42 45 45 35 35 32 29 35 32 26 23 19 23 23 26 26 23 23 26 19 23 23 23 29 29 23 19 19 19 10 13 16 13 6 16 19 3 0 0 10 19
39 45 42 42 39 32 32 35 35 35 23 26 19 19 19 19 19 23 23 19 23 23 23 23 23 23 23 19 19 16 19 16 10 13 6 10 10 0 3 6 6 3 3
29 35 39 35 35 39 29 29 29 29 26 23 19 19 19 19 19 16 16 19 23 19 16 19 16 16 23 19 19 19 19 16 13 13 10 13 10 3 6 6 3 3 3

GEFSSE_con_cape1000_228.txt.gz
Probability
52 61 87 87 84 84 81 81 84 84 84 84 81 77 81 81 81 77 74 74 68 74 71 68 58 48 52 48 55 55 48 52 58 61 58 58 61 65 71 61 61 65 87
52 65 81 84 81 81 77 81 77 81 81 81 77 71 81 81 81 77 77 71 68 74 68 61 58 55 52 45 52 52 55 48 55 58 55 52 58 65 71 71 68 81 84
55 61 81 84 81 81 77 74 77 77 77 77 77 74 74 77 77 71 68 68 71 71 68 65 58 52 52 52 48 45 45 48 48 52 58 52 55 74 74 71 74 74 77
61 55 65 84 81 77 77 74 74 71 71 74 74 68 68 74 74 71 65 68 71 71 68 61 55 48 48 39 39 42 45 48 48 58 55 35 35 77 81 71 81 81 74
68 68 77 87 87 77 77 77 77 71 71 71 74 71 68 71 71 71 71 68 68 65 65 65 48 48 45 39 39 48 48 48 48 65 45 23 45 84 81 74 68 74 74
61 68 74 87 84 84 77 77 77 77 74 74 74 77 71 71 68 71 65 55 58 55 52 42 42 42 39 35 35 35 45 45 48 39 32 39 55 84 81 68 65 68 77
61 68 71 87 84 81 74 74 71 71 71 74 74 74 65 71 61 58 55 55 52 55 55 45 39 39 39 35 39 39 39 42 39 19 13 32 48 84 77 71 68 71 77
61 65 77 87 84 81 77 71 71 71 71 71 71 71 65 61 65 61 52 48 52 52 45 45 45 45 42 39 42 39 42 42 29 13 16 29 65 74 68 65 68 71 81
55 68 71 74 77 81 77 74 74 71 71 68 68 71 65 61 61 58 58 58 58 52 48 48 48 45 39 45 45 45 45 48 35 16 10 32 65 68 61 65 65 65 74
52 58 61 55 61 65 68 71 68 71 68 68 68 68 65 61 68 61 61 55 55 52 48 48 48 48 48 55 61 61 55 52 23 10 6 35 58 61 61 65 68 58 58
58 55 58 52 58 48 52 65 68 68 68 68 68 68 68 68 61 58 52 55 48 52 48 48 52 48 48 52 58 58 52 29 13 6 16 39 52 55 55 55 52 58 52
61 52 58 55 52 45 48 55 55 48 65 61 61 65 65 68 65 55 48 55 52 52 48 52 52 55 42 42 42 55 35 26 16 10 19 52 48 45 48 42 42 45 42
52 45 58 48 55 61 55 52 52 52 55 58 58 65 65 68 58 52 52 48 52 48 45 48 52 42 35 35 39 42 42 32 19 16 29 52 45 39 35 39 35 39 45
52 39 45 45 61 71 58 58 61 58 58 58 61 58 61 65 58 58 52 48 42 35 39 35 35 32 29 35 35 29 32 32 35 29 39 42 42 42 39 35 35 26 35
52 52 58 65 74 74 74 71 61 61 55 55 68 65 61 52 48 42 48 48 42 42 39 32 32 35 29 19 19 19 23 29 32 32 32 39 39 35 35 29 29 29 29
55 58 52 61 68 71 68 68 65 58 61 58 58 55 52 52 48 45 45 42 35 39 39 45 42 39 39 26 23 26 29 26 32 39 32 29 35 35 35 32 29 26 29
58 55 65 61 68 68 65 65 61 58 58 61 61 58 55 48 48 48 42 39 32 39 39 39 39 42 35 29 35 39 35 39 35 32 26 23 23 32 32 32 32 32 26
52 55 55 45 61 71 68 71 55 52 55 58 55 55 52 45 39 42 42 35 35 35 32 39 39 35 26 35 29 35 29 32 39 32 26 26 23 16 23 32 32 29 29
58 55 55 58 68 68 71 71 61 65 52 48 52 42 35 35 29 32 35 35 35 35 29 23 29 29 32 32 23 26 26 26 26 19 23 23 26 26 19 26 29 29 26
52 55 58 55 65 68 68 74 71 58 52 52 39 39 39 39 23 26 29 26 29 32 29 26 26 32 29 19 16 16 26 29 26 23 19 19 23 16 23 16 16 19 26
48 52 55 61 68 71 68 61 61 52 48 45 35 35 35 29 26 23 23 23 35 26 23 23 29 23 19 19 23 13 13 19 29 29 19 16 13 13 19 26 10 6 6
45 48 52 52 61 68 71 68 61 52 39 42 35 32 29 26 23 19 19 23 29 26 26 29 26 19 16 19 19 16 13 13 19 6 10 16 10 13 10 10 16 19 0
48 48 48 55 55 58 58 58 52 45 42 35 35 39 29 26 23 26 16 19 19 16 16 16 16 16 19 23 19 13 13 10 6 13 6 6 6 6 13 3 16 16 16
42 48 48 55 52 52 55 52 45 42 32 39 42 35 32 29 23 26 23 23 19 16 16 19 19 19 19 19 23 19 10 10 6 6 6 6 10 13 10 10 3 16 16
35 42 42 48 52 52 52 42 45 39 35 32 35 32 39 26 26 19 26 23 23 29 23 23 23 23 23 19 19 13 13 10 13 3 3 3 6 6 10 13 16 19 16
32 35 35 45 48 48 48 39 35 42 42 39 35 32 29 23 23 19 23 26 23 26 23 23 26 23 19 19 19 13 19 13 10 10 6 3 3 3 3 6 10 16 19

GEFSSE_con_cape1000_234.txt.gz
Probability
42 68 90 84 84 84 84 84 81 84 84 77 77 84 84 84 84 87 87 81 81 84 77 74 71 68 71 71 58 48 55 61 58 55 58 58 65 65 65 71 77 71 87
42 68 84 81 81 84 84 84 81 84 84 77 77 81 84 84 87 81 84 81 74 81 77 68 65 68 61 52 52 55 55 58 61 58 58 55 68 68 77 74 77 74 87
48 65 81 84 81 84 81 81 77 81 81 74 77 81 81 84 84 81 81 81 74 74 71 61 65 65 61 58 58 58 55 58 58 48 55 39 48 65 77 74 84 84 81
52 61 74 84 84 84 81 77 77 77 74 81 77 77 77 81 81 68 68 68 77 74 71 65 61 58 55 52 52 55 48 55 52 55 35 19 32 58 77 74 81 81 81
48 58 77 87 87 81 81 77 77 71 71 77 77 74 74 74 77 74 71 68 71 68 61 58 58 55 58 48 45 45 45 45 48 39 16 13 16 48 81 81 84 87 81
52 65 81 87 87 84 81 77 81 77 74 71 77 77 74 81 77 74 74 71 65 61 61 48 52 58 55 45 42 45 42 48 39 23 13 13 16 65 84 77 77 81 84
52 61 74 87 81 81 81 81 77 74 74 74 74 71 74 77 74 71 71 65 61 61 61 55 52 52 55 52 42 42 39 42 23 16 3 6 13 68 77 77 74 81 84
55 61 74 84 81 81 81 81 77 74 74 74 74 74 71 74 68 71 65 61 58 61 65 65 48 48 52 39 32 35 48 42 35 13 0 6 23 68 65 71 71 74 77
52 58 68 71 77 74 81 77 74 74 74 74 71 71 68 68 71 68 68 61 58 58 58 58 55 52 45 45 48 45 55 52 23 10 6 6 35 52 58 65 65 71 71
39 48 55 61 61 61 65 68 74 71 71 71 71 71 68 68 65 68 68 68 61 61 58 55 52 48 52 55 52 55 58 48 19 13 10 10 45 52 55 55 55 58 58
35 32 35 52 55 58 58 65 65 65 65 68 68 71 68 61 58 61 61 65 61 55 55 55 48 52 52 52 52 55 52 23 16 13 10 23 39 48 48 52 55 52 52
26 23 23 35 35 42 52 58 58 58 58 58 55 58 55 39 39 45 52 58 58 55 48 45 48 48 45 32 35 45 26 16 13 10 10 39 42 52 48 52 52 52 48
26 19 23 26 29 32 35 42 45 42 42 45 45 52 42 39 35 39 32 42 45 48 39 42 39 35 29 23 13 10 10 13 10 10 6 39 48 48 48 45 45 45 48
23 19 23 23 23 23 19 29 29 29 32 35 35 35 29 29 26 26 26 16 23 19 19 19 23 16 16 16 6 6 3 3 0 3 3 39 42 48 48 42 42 42 39
19 19 19 23 16 19 16 23 29 29 29 32 32 32 26 26 23 13 10 13 10 10 16 13 6 13 13 13 10 6 3 3 0 3 3 32 39 48 45 42 42 39 39
16 16 19 19 16 16 16 19 23 29 32 32 32 35 29 23 19 13 6 3 10 10 3 3 3 10 10 10 10 6 6 0 3 0 0 16 35 42 42 32 35 39 39
19 19 16 19 16 16 26 26 26 29 32 32 32 32 26 23 16 10 6 6 6 6 3 3 3 3 3 10 6 6 3 3 3 0 0 3 3 29 35 42 48 42 42
19 16 16 23 19 16 19 23 26 29 29 26 26 26 19 23 13 10 6 10 10 6 3 3 3 3 3 3 3 0 0 3 3 3 0 0 0 6 23 42 42 45 39
26 23 23 19 19 23 23 23 23 26 16 23 23 19 23 16 13 10 13 13 10 10 6 10 3 3 3 3 0 0 0 3 3 3 0 0 0 6 10 19 42 42 32
19 16 16 13 13 19 19 19 10 10 13 13 19 13 16 13 13 13 13 10 10 10 6 3 3 3 3 0 0 0 0 0 0 0 0 0 0 3 3 3 13 23 26
23 19 19 16 16 16 16 23 13 13 13 10 13 10 10 16 13 16 13 13 10 10 10 6 3 3 3 0 0 0 0 0 0 0 0 0 0 0 0 3 3 6 10
23 23 26 16 16 16 13 23 16 19 19 6 13 10 10 6 13 13 13 13 10 10 10 6 3 0 0 0 0 0 0 0 0 0 0 0 0 0 0 0 0 0 0
23 23 23 19 19 13 13 16 16 19 10 13 13 13 6 6 6 10 10 10 10 10 10 10 6 0 0 0 0 0 0 0 0 0 0 0 0 0 0 0 0 0 0
23 23 23 23 19 16 13 13 16 10 6 10 13 10 10 10 6 10 10 10 10 10 6 6 3 3 3 3 0 0 0 0 0 0 0 0 0 0 0 0 0 0 0
10 16 19 19 16 13 13 13 13 13 6 6 3 6 10 10 10 13 10 10 10 10 6 6 6 6 6 3 0 0 0 0 0 0 0 0 0 0 0 0 0 0 0
16 13 16 16 16 16 13 13 10 10 10 3 3 3 6 6 10 10 10 10 10 10 10 10 6 6 3 0 0 0 0 0 0 0 0 0 0 0 0 0 0 0 0

GEFSSE_con_cape1000_240.txt.gz
Probability
35 58 84 87 87 84 81 81 81 81 81 81 84 81 81 84 84 84 81 87 84 84 87 84 84 84 81 81 71 74 77 68 65 58 65 71 68 61 71 65 71 68 81
39 65 84 87 84 84 84 84 81 81 81 81 81 81 81 81 81 81 81 81 84 84 84 84 84 81 74 71 68 65 68 68 65 55 61 61 65 68 71 71 68 68 81
48 68 77 81 81 81 84 84 81 81 81 81 81 81 81 81 81 81 81 77 81 81 84 77 77 74 71 68 68 65 61 61 61 61 65 58 55 68 71 77 68 81 84
48 71 74 81 77 81 77 84 84 81 81 81 81 81 81 81 81 77 74 77 77 81 71 74 74 71 68 68 68 65 55 55 71 71 45 45 52 58 61 74 77 81 81
52 61 77 81 81 81 77 81 81 77 77 77 77 77 77 77 74 74 74 74 77 68 74 71 71 71 71 68 65 61 61 58 58 48 29 29 32 45 68 74 77 81 84
55 61 74 81 81 77 81 81 81 77 77 77 77 77 77 77 77 74 74 74 71 68 68 71 68 65 65 65 65 58 55 55 52 32 16 19 26 48 68 77 81 81 81
48 61 71 81 81 77 77 81 81 77 77 77 77 74 74 77 77 74 74 68 68 65 61 61 65 65 61 55 55 48 55 55 35 13 13 13 26 55 68 71 77 77 71
48 68 68 77 77 77 77 77 74 77 77 77 74 74 74 74 74 71 71 71 68 68 61 58 55 55 52 52 48 45 55 55 42 23 16 16 23 48 55 74 68 68 68
58 65 68 71 71 71 74 74 74 74 74 74 74 71 71 71 71 71 68 71 68 68 68 61 58 52 48 48 52 55 58 45 35 19 19 19 26 42 45 58 61 61 68
48 55 55 58 58 65 68 71 71 71 65 65 65 65 65 68 71 68 68 71 65 65 58 61 61 58 55 52 48 48 52 45 26 16 16 16 26 42 55 61 58 58 65
35 39 39 45 55 55 58 61 61 61 61 58 58 61 61 58 55 58 68 65 58 61 58 52 55 55 52 52 48 55 39 32 23 13 16 19 39 52 48 55 61 61 61
26 29 26 29 39 48 58 52 52 52 52 48 48 48 45 35 32 42 52 65 65 65 55 52 48 45 42 39 32 32 32 29 23 19 13 29 45 48 48 55 58 61 58
16 19 23 23 23 29 35 35 35 39 45 45 45 42 29 29 26 26 23 35 45 48 42 42 42 35 29 29 29 29 23 16 16 16 6 23 32 42 45 58 55 52 52
19 23 23 23 19 19 26 26 26 29 42 42 35 32 29 26 26 23 19 19 16 19 23 23 26 26 26 23 19 16 10 13 10 6 3 19 32 39 45 48 52 48 52
23 16 16 16 16 19 19 23 23 26 26 32 26 26 29 29 23 19 19 13 13 10 10 13 16 16 10 16 16 16 13 6 6 6 3 16 32 32 35 45 45 48 48
16 16 10 13 16 16 16 13 16 19 23 26 26 23 23 19 13 13 13 10 10 6 10 13 10 6 0 0 6 13 6 6 6 3 0 6 23 32 35 42 42 42 42
16 6 10 10 13 16 13 13 13 13 16 23 23 23 19 19 13 13 10 10 10 6 6 6 3 3 0 0 0 3 6 3 6 3 0 0 10 23 32 32 39 42 42
6 6 3 6 6 10 10 10 10 10 10 16 19 19 19 19 16 13 13 13 10 6 6 6 3 0 0 0 0 0 0 3 3 3 0 0 6 10 19 29 39 42 35
6 3 3 3 3 6 6 10 10 10 10 10 19 19 19 19 16 13 13 10 3 3 6 6 6 0 0 0 0 0 3 3 3 0 0 3 3 6 10 13 26 35 35
3 3 3 3 3 3 3 6 10 10 10 13 16 19 16 19 13 13 13 10 3 3 3 3 3 0 0 0 0 0 0 3 3 0 0 3 3 3 3 3 13 19 32
3 6 6 6 6 3 3 3 6 6 6 6 10 6 10 13 10 13 10 10 13 10 6 3 6 6 0 0 0 0 0 0 0 0 0 3 3 3 3 3 3 6 6
6 3 3 3 6 6 3 3 6 3 6 3 3 6 6 6 6 6 6 10 10 10 6 6 10 6 3 0 0 0 0 0 0 0 0 0 0 0 0 3 3 3 3
6 6 3 3 6 3 3 3 6 10 6 6 0 6 3 3 6 6 3 3 3 10 10 6 10 6 6 0 0 0 3 0 0 0 0 0 0 0 0 3 3 3 3
3 0 3 3 6 6 3 3 6 10 6 6 6 6 6 3 3 3 3 6 3 3 6 6 10 6 6 0 0 0 0 0 3 0 0 0 0 0 0 0 0 0 3
13 10 6 0 0 3 10 6 6 3 3 3 0 0 0 0 0 0 0 3 3 3 6 6 10 0 6 6 0 0 0 0 0 0 0 0 0 0 0 0 0 0 0
6 6 6 3 0 0 0 0 3 3 3 0 0 0 0 0 0 0 0 3 3 6 6 6 3 0 0 6 3 0 0 0 0 0 0 0 0 0 0 0 0 0 0